Observation data for Fort Lancaster on 11/19/2019      Previous  Date       Current Mesonet Observations  Soil Data  Daily Summary Page  Observations in Plain Language
KLA1 190600Z 29001KT 09/04 A2998 RMK A01 T00920038  RH  069%=      5-min Rain = 0
KLA1 190601Z 29000KT 09/04 A2998 RMK A01 T00900037  RH  070%=      5-min Rain = 0
KLA1 190602Z 01000KT 09/04 A2998 RMK A01 T00870037  RH  071%=      5-min Rain = 0
KLA1 190603Z 02001KT 09/04 A2998 RMK A01 T00850037  RH  071%=      5-min Rain = 0
KLA1 190604Z 01001KT 08/04 A2998 RMK A01 T00840036  RH  072%=      5-min Rain = 0
KLA1 190605Z 01000KT 08/04 A2998 RMK A01 T00820037  RH  073%=      5-min Rain = 0
KLA1 190606Z 01000KT 08/04 A2998 RMK A01 T00810037  RH  073%=      5-min Rain = 0
KLA1 190607Z 00000KT 08/04 A2998 RMK A01 T00810039  RH  075%=      5-min Rain = 0
KLA1 190608Z 00000KT 08/04 A2998 RMK A01 T00810040  RH  075%=      5-min Rain = 0
KLA1 190609Z 35001KT 08/04 A2998 RMK A01 T00800039  RH  075%=      5-min Rain = 0
KLA1 190610Z 35001KT 08/04 A2998 RMK A01 T00790038  RH  075%=      5-min Rain = 0
KLA1 190611Z 00000KT 08/04 A2998 RMK A01 T00790038  RH  075%=      5-min Rain = 0
KLA1 190612Z 00000KT 08/04 A2998 RMK A01 T00770036  RH  075%=      5-min Rain = 0
KLA1 190613Z 00000KT 08/04 A2998 RMK A01 T00760035  RH  075%=      5-min Rain = 0
KLA1 190614Z 00000KT 08/04 A2998 RMK A01 T00760036  RH  076%=      5-min Rain = 0
KLA1 190615Z 00000KT 08/04 A2998 RMK A01 T00760036  RH  076%=      5-min Rain = 0
KLA1 190616Z 28001KT 08/04 A2998 RMK A01 T00750035  RH  076%=      5-min Rain = 0
KLA1 190617Z 28001KT 08/04 A2998 RMK A01 T00750035  RH  076%=      5-min Rain = 0
KLA1 190618Z 28001KT 08/04 A2998 RMK A01 T00750036  RH  077%=      5-min Rain = 0
KLA1 190619Z 28000KT 08/04 A2998 RMK A01 T00750037  RH  077%=      5-min Rain = 0
KLA1 190620Z 25001KT 08/04 A2998 RMK A01 T00750037  RH  077%=      5-min Rain = 0
KLA1 190621Z 25001KT 08/04 A2998 RMK A01 T00760037  RH  077%=      5-min Rain = 0
KLA1 190622Z 25001KT 08/04 A2998 RMK A01 T00760038  RH  076%=      5-min Rain = 0
KLA1 190623Z 25000KT 08/04 A2998 RMK A01 T00770038  RH  076%=      5-min Rain = 0
KLA1 190624Z 00000KT 08/04 A2998 RMK A01 T00780039  RH  076%=      5-min Rain = 0
KLA1 190625Z 00000KT 08/04 A2998 RMK A01 T00790039  RH  076%=      5-min Rain = 0
KLA1 190626Z 00000KT 08/04 A2998 RMK A01 T00800040  RH  076%=      5-min Rain = 0
KLA1 190627Z 00000KT 08/04 A2998 RMK A01 T00810040  RH  076%=      5-min Rain = 0
KLA1 190628Z 02000KT 08/04 A2998 RMK A01 T00830041  RH  075%=      5-min Rain = 0
KLA1 190629Z 02001KT 08/04 A2998 RMK A01 T00840042  RH  075%=      5-min Rain = 0
KLA1 190630Z 02001KT 09/04 A2998 RMK A01 T00860042  RH  074%=      5-min Rain = 0
KLA1 190631Z 02001KT 09/04 A2998 RMK A01 T00870041  RH  073%=      5-min Rain = 0
KLA1 190632Z 02000KT 09/04 A2998 RMK A01 T00870041  RH  073%=      5-min Rain = 0
KLA1 190633Z 00000KT 09/04 A2998 RMK A01 T00870041  RH  073%=      5-min Rain = 0
KLA1 190634Z 00000KT 09/04 A2998 RMK A01 T00880041  RH  073%=      5-min Rain = 0
KLA1 190635Z 00000KT 09/04 A2998 RMK A01 T00870042  RH  073%=      5-min Rain = 0
KLA1 190636Z 28000KT 09/04 A2998 RMK A01 T00870042  RH  073%=      5-min Rain = 0
KLA1 190637Z 28001KT 09/04 A2998 RMK A01 T00870042  RH  073%=      5-min Rain = 0
KLA1 190638Z 28000KT 09/04 A2998 RMK A01 T00870043  RH  073%=      5-min Rain = 0
KLA1 190639Z 28000KT 09/04 A2998 RMK A01 T00880042  RH  073%=      5-min Rain = 0
KLA1 190640Z 28001KT 09/04 A2998 RMK A01 T00890043  RH  073%=      5-min Rain = 0
KLA1 190641Z 28000KT 09/04 A2998 RMK A01 T00890042  RH  072%=      5-min Rain = 0
KLA1 190642Z 00000KT 09/04 A2998 RMK A01 T00890041  RH  072%=      5-min Rain = 0
KLA1 190643Z 23001KT 09/04 A2998 RMK A01 T00890041  RH  072%=      5-min Rain = 0
KLA1 190644Z 24001KT 09/04 A2998 RMK A01 T00880040  RH  072%=      5-min Rain = 0
KLA1 190645Z 24000KT 09/04 A2998 RMK A01 T00860039  RH  072%=      5-min Rain = 0
KLA1 190646Z 00000KT 08/04 A2998 RMK A01 T00830038  RH  073%=      5-min Rain = 0
KLA1 190647Z 00000KT 08/04 A2998 RMK A01 T00800036  RH  074%=      5-min Rain = 0
KLA1 190648Z 00000KT 08/04 A2998 RMK A01 T00770036  RH  075%=      5-min Rain = 0
KLA1 190649Z 00000KT 08/04 A2998 RMK A01 T00750036  RH  076%=      5-min Rain = 0
KLA1 190650Z 33000KT 07/04 A2998 RMK A01 T00740039  RH  078%=      5-min Rain = 0
KLA1 190651Z 33000KT 08/04 A2998 RMK A01 T00750041  RH  079%=      5-min Rain = 0
KLA1 190652Z 01000KT 08/04 A2998 RMK A01 T00760042  RH  079%=      5-min Rain = 0
KLA1 190653Z 01001KT 08/04 A2998 RMK A01 T00780042  RH  078%=      5-min Rain = 0
KLA1 190654Z 01001KT 08/04 A2998 RMK A01 T00790042  RH  078%=      5-min Rain = 0
KLA1 190655Z 01001KT 08/04 A2998 RMK A01 T00800042  RH  077%=      5-min Rain = 0
KLA1 190656Z 00001KT 08/04 A2998 RMK A01 T00800041  RH  076%=      5-min Rain = 0
KLA1 190657Z 36000KT 08/04 A2998 RMK A01 T00800041  RH  076%=      5-min Rain = 0
KLA1 190658Z 00000KT 08/04 A2998 RMK A01 T00800041  RH  076%=      5-min Rain = 0
KLA1 190659Z 00000KT 08/04 A2998 RMK A01 T00790041  RH  077%=      5-min Rain = 0
KLA1 190700Z 00000KT 08/04 A2998 RMK A01 T00790041  RH  077%=      5-min Rain = 0
KLA1 190701Z 00000KT 08/04 A2998 RMK A01 T00780040  RH  077%=      5-min Rain = 0
KLA1 190702Z 00000KT 08/04 A2998 RMK A01 T00780042  RH  078%=      5-min Rain = 0
KLA1 190703Z 00000KT 08/04 A2998 RMK A01 T00780042  RH  078%=      5-min Rain = 0
KLA1 190704Z 25001KT 08/04 A2999 RMK A01 T00780042  RH  078%=      5-min Rain = 0
KLA1 190705Z 25001KT 08/04 A2999 RMK A01 T00790042  RH  078%=      5-min Rain = 0
KLA1 190706Z 25000KT 08/04 A2999 RMK A01 T00810043  RH  077%=      5-min Rain = 0
KLA1 190707Z 25000KT 08/04 A2999 RMK A01 T00830042  RH  076%=      5-min Rain = 0
KLA1 190708Z 25000KT 08/04 A2999 RMK A01 T00840042  RH  075%=      5-min Rain = 0
KLA1 190709Z 26001KT 08/04 A2999 RMK A01 T00840042  RH  075%=      5-min Rain = 0
KLA1 190710Z 26001KT 09/04 A2999 RMK A01 T00850042  RH  074%=      5-min Rain = 0
KLA1 190711Z 26001KT 09/04 A2999 RMK A01 T00850041  RH  074%=      5-min Rain = 0
KLA1 190712Z 27001KT 09/04 A2999 RMK A01 T00850042  RH  074%=      5-min Rain = 0
KLA1 190713Z 27001KT 09/04 A2999 RMK A01 T00850042  RH  074%=      5-min Rain = 0
KLA1 190714Z 27000KT 09/04 A2998 RMK A01 T00850042  RH  074%=      5-min Rain = 0
KLA1 190715Z 00000KT 09/04 A2998 RMK A01 T00850042  RH  074%=      5-min Rain = 0
KLA1 190716Z 00000KT 09/04 A2999 RMK A01 T00850041  RH  074%=      5-min Rain = 0
KLA1 190717Z 00000KT 09/04 A2999 RMK A01 T00850041  RH  074%=      5-min Rain = 0
KLA1 190718Z 33000KT 08/04 A2999 RMK A01 T00840041  RH  075%=      5-min Rain = 0
KLA1 190719Z 33000KT 08/04 A2999 RMK A01 T00830041  RH  075%=      5-min Rain = 0
KLA1 190720Z 30000KT 08/04 A2999 RMK A01 T00820041  RH  076%=      5-min Rain = 0
KLA1 190721Z 29001KT 08/04 A2999 RMK A01 T00810041  RH  076%=      5-min Rain = 0
KLA1 190722Z 27001KT 08/04 A2999 RMK A01 T00800041  RH  076%=      5-min Rain = 0
KLA1 190723Z 27002KT 08/04 A2999 RMK A01 T00790041  RH  077%=      5-min Rain = 0
KLA1 190724Z 29002KT 08/04 A2999 RMK A01 T00780040  RH  077%=      5-min Rain = 0
KLA1 190725Z 29002KT 08/04 A2999 RMK A01 T00760040  RH  078%=      5-min Rain = 0
KLA1 190726Z 29002KT 08/04 A2999 RMK A01 T00750040  RH  078%=      5-min Rain = 0
KLA1 190727Z 30002KT 07/04 A2999 RMK A01 T00730036  RH  077%=      5-min Rain = 0
KLA1 190728Z 30001KT 07/03 A2999 RMK A01 T00700033  RH  077%=      5-min Rain = 0
KLA1 190729Z 30000KT 07/03 A2999 RMK A01 T00670030  RH  077%=      5-min Rain = 0
KLA1 190730Z 00000KT 07/03 A2999 RMK A01 T00660031  RH  079%=      5-min Rain = 0
KLA1 190731Z 00000KT 06/03 A2999 RMK A01 T00640033  RH  080%=      5-min Rain = 0
KLA1 190732Z 00000KT 06/04 A2999 RMK A01 T00640035  RH  082%=      5-min Rain = 0
KLA1 190733Z 00000KT 07/04 A2999 RMK A01 T00660038  RH  082%=      5-min Rain = 0
KLA1 190734Z 00000KT 07/04 A2999 RMK A01 T00670039  RH  082%=      5-min Rain = 0
KLA1 190735Z 00000KT 07/04 A2999 RMK A01 T00680040  RH  082%=      5-min Rain = 0
KLA1 190736Z 00000KT 07/04 A2999 RMK A01 T00700040  RH  082%=      5-min Rain = 0
KLA1 190737Z 00000KT 07/04 A2999 RMK A01 T00710041  RH  081%=      5-min Rain = 0
KLA1 190738Z 00000KT 07/04 A2999 RMK A01 T00720043  RH  081%=      5-min Rain = 0
KLA1 190739Z 00000KT 08/05 A2999 RMK A01 T00750045  RH  081%=      5-min Rain = 0
KLA1 190740Z 00000KT 08/04 A2999 RMK A01 T00770044  RH  079%=      5-min Rain = 0
KLA1 190741Z 00000KT 08/04 A2999 RMK A01 T00780042  RH  078%=      5-min Rain = 0
KLA1 190742Z 00000KT 08/04 A2999 RMK A01 T00780041  RH  078%=      5-min Rain = 0
KLA1 190743Z 00000KT 08/04 A2999 RMK A01 T00780042  RH  078%=      5-min Rain = 0
KLA1 190744Z 00000KT 08/04 A2999 RMK A01 T00770039  RH  077%=      5-min Rain = 0
KLA1 190745Z 00000KT 07/04 A2999 RMK A01 T00740036  RH  076%=      5-min Rain = 0
KLA1 190746Z 00000KT 07/03 A2999 RMK A01 T00720033  RH  076%=      5-min Rain = 0
KLA1 190747Z 00000KT 07/03 A2999 RMK A01 T00700032  RH  077%=      5-min Rain = 0
KLA1 190748Z 00000KT 07/04 A2999 RMK A01 T00690035  RH  079%=      5-min Rain = 0
KLA1 190749Z 00000KT 07/04 A2999 RMK A01 T00680036  RH  080%=      5-min Rain = 0
KLA1 190750Z 00000KT 07/04 A2999 RMK A01 T00670036  RH  081%=      5-min Rain = 0
KLA1 190751Z 00000KT 07/03 A2999 RMK A01 T00650034  RH  081%=      5-min Rain = 0
KLA1 190752Z 26000KT 06/03 A2999 RMK A01 T00620032  RH  081%=      5-min Rain = 0
KLA1 190753Z 00000KT 06/03 A2999 RMK A01 T00600032  RH  082%=      5-min Rain = 0
KLA1 190754Z 26000KT 06/03 A2999 RMK A01 T00590032  RH  083%=      5-min Rain = 0
KLA1 190755Z 26000KT 06/03 A2999 RMK A01 T00580031  RH  083%=      5-min Rain = 0
KLA1 190756Z 00000KT 06/03 A2999 RMK A01 T00580031  RH  083%=      5-min Rain = 0
KLA1 190757Z 00000KT 06/03 A2999 RMK A01 T00580032  RH  084%=      5-min Rain = 0
KLA1 190758Z 00000KT 06/03 A2999 RMK A01 T00570033  RH  084%=      5-min Rain = 0
KLA1 190759Z 00000KT 06/03 A2998 RMK A01 T00580033  RH  084%=      5-min Rain = 0
KLA1 190800Z 00000KT 06/03 A2998 RMK A01 T00570032  RH  084%=      5-min Rain = 0
KLA1 190801Z 00000KT 06/03 A2998 RMK A01 T00570032  RH  084%=      5-min Rain = 0
KLA1 190802Z 00000KT 06/03 A2998 RMK A01 T00560032  RH  084%=      5-min Rain = 0
KLA1 190803Z 00000KT 06/03 A2998 RMK A01 T00560032  RH  085%=      5-min Rain = 0
KLA1 190804Z 00000KT 06/03 A2998 RMK A01 T00560032  RH  085%=      5-min Rain = 0
KLA1 190805Z 00000KT 06/03 A2998 RMK A01 T00560032  RH  085%=      5-min Rain = 0
KLA1 190806Z 00000KT 06/03 A2998 RMK A01 T00560033  RH  085%=      5-min Rain = 0
KLA1 190807Z 26000KT 06/03 A2998 RMK A01 T00560032  RH  085%=      5-min Rain = 0
KLA1 190808Z 26000KT 06/03 A2998 RMK A01 T00560032  RH  085%=      5-min Rain = 0
KLA1 190809Z 00000KT 06/03 A2998 RMK A01 T00560032  RH  085%=      5-min Rain = 0
KLA1 190810Z 00000KT 06/03 A2998 RMK A01 T00550032  RH  085%=      5-min Rain = 0
KLA1 190811Z 00000KT 05/03 A2998 RMK A01 T00540030  RH  085%=      5-min Rain = 0
KLA1 190812Z 00000KT 05/03 A2998 RMK A01 T00540030  RH  085%=      5-min Rain = 0
KLA1 190813Z 00000KT 05/03 A2998 RMK A01 T00540031  RH  085%=      5-min Rain = 0
KLA1 190814Z 00000KT 05/03 A2998 RMK A01 T00540032  RH  086%=      5-min Rain = 0
KLA1 190815Z 00000KT 05/03 A2998 RMK A01 T00540033  RH  086%=      5-min Rain = 0
KLA1 190816Z 00000KT 05/03 A2998 RMK A01 T00540034  RH  087%=      5-min Rain = 0
KLA1 190817Z 00000KT 06/04 A2998 RMK A01 T00560037  RH  088%=      5-min Rain = 0
KLA1 190818Z 22000KT 06/04 A2998 RMK A01 T00580038  RH  087%=      5-min Rain = 0
KLA1 190819Z 21000KT 06/04 A2998 RMK A01 T00580037  RH  086%=      5-min Rain = 0
KLA1 190820Z 21001KT 06/04 A2998 RMK A01 T00590038  RH  086%=      5-min Rain = 0
KLA1 190821Z 21001KT 06/04 A2998 RMK A01 T00610039  RH  086%=      5-min Rain = 0
KLA1 190822Z 15000KT 06/04 A2998 RMK A01 T00620040  RH  086%=      5-min Rain = 0
KLA1 190823Z 05001KT 06/04 A2998 RMK A01 T00620038  RH  085%=      5-min Rain = 0
KLA1 190824Z 03002KT 06/04 A2998 RMK A01 T00610036  RH  084%=      5-min Rain = 0
KLA1 190825Z 03002KT 06/04 A2998 RMK A01 T00600037  RH  085%=      5-min Rain = 0
KLA1 190826Z 03002KT 06/04 A2998 RMK A01 T00610040  RH  086%=      5-min Rain = 0
KLA1 190827Z 03002KT 06/04 A2998 RMK A01 T00630042  RH  086%=      5-min Rain = 0
KLA1 190828Z 02002KT 06/04 A2998 RMK A01 T00640042  RH  086%=      5-min Rain = 0
KLA1 190829Z 02002KT 07/04 A2998 RMK A01 T00660042  RH  085%=      5-min Rain = 0
KLA1 190830Z 02002KT 07/04 A2998 RMK A01 T00670042  RH  084%=      5-min Rain = 0
KLA1 190831Z 01003KT 07/04 A2998 RMK A01 T00680042  RH  084%=      5-min Rain = 0
KLA1 190832Z 01003KT 07/04 A2998 RMK A01 T00680042  RH  084%=      5-min Rain = 0
KLA1 190833Z 01003KT 07/04 A2998 RMK A01 T00690043  RH  083%=      5-min Rain = 0
KLA1 190834Z 01003KT 07/04 A2998 RMK A01 T00700044  RH  083%=      5-min Rain = 0
KLA1 190835Z 01003KT 07/05 A2998 RMK A01 T00720045  RH  083%=      5-min Rain = 0
KLA1 190836Z 01003KT 08/05 A2998 RMK A01 T00750046  RH  082%=      5-min Rain = 0
KLA1 190837Z 01003KT 08/05 A2998 RMK A01 T00770047  RH  081%=      5-min Rain = 0
KLA1 190838Z 01003KT 08/05 A2998 RMK A01 T00790046  RH  080%=      5-min Rain = 0
KLA1 190839Z 01003KT 08/05 A2998 RMK A01 T00800046  RH  079%=      5-min Rain = 0
KLA1 190840Z 01002KT 08/04 A2998 RMK A01 T00790043  RH  078%=      5-min Rain = 0
KLA1 190841Z 01002KT 08/04 A2998 RMK A01 T00770042  RH  078%=      5-min Rain = 0
KLA1 190842Z 01001KT 08/04 A2998 RMK A01 T00760043  RH  079%=      5-min Rain = 0
KLA1 190843Z 01000KT 08/04 A2998 RMK A01 T00760042  RH  079%=      5-min Rain = 0
KLA1 190844Z 00001KT 08/04 A2998 RMK A01 T00750041  RH  079%=      5-min Rain = 0
KLA1 190845Z 35001KT 07/04 A2998 RMK A01 T00740041  RH  080%=      5-min Rain = 0
KLA1 190846Z 31001KT 07/04 A2998 RMK A01 T00720040  RH  080%=      5-min Rain = 0
KLA1 190847Z 30001KT 07/04 A2998 RMK A01 T00710039  RH  080%=      5-min Rain = 0
KLA1 190848Z 30001KT 07/04 A2998 RMK A01 T00700038  RH  081%=      5-min Rain = 0
KLA1 190849Z 30001KT 07/04 A2998 RMK A01 T00680037  RH  081%=      5-min Rain = 0
KLA1 190850Z 30001KT 07/04 A2998 RMK A01 T00660036  RH  081%=      5-min Rain = 0
KLA1 190851Z 30002KT 06/04 A2998 RMK A01 T00640035  RH  082%=      5-min Rain = 0
KLA1 190852Z 30001KT 06/03 A2998 RMK A01 T00620034  RH  082%=      5-min Rain = 0
KLA1 190853Z 30000KT 06/03 A2998 RMK A01 T00600033  RH  083%=      5-min Rain = 0
KLA1 190854Z 00000KT 06/03 A2998 RMK A01 T00580031  RH  083%=      5-min Rain = 0
KLA1 190855Z 00000KT 05/03 A2998 RMK A01 T00540027  RH  083%=      5-min Rain = 0
KLA1 190856Z 00000KT 05/03 A2998 RMK A01 T00510025  RH  084%=      5-min Rain = 0
KLA1 190857Z 30000KT 05/03 A2998 RMK A01 T00480025  RH  085%=      5-min Rain = 0
KLA1 190858Z 00000KT 05/03 A2997 RMK A01 T00460025  RH  086%=      5-min Rain = 0
KLA1 190859Z 00000KT 05/03 A2997 RMK A01 T00450026  RH  087%=      5-min Rain = 0
KLA1 190900Z 00000KT 05/03 A2998 RMK A01 T00450027  RH  088%=      5-min Rain = 0
KLA1 190901Z 00000KT 05/03 A2998 RMK A01 T00450028  RH  089%=      5-min Rain = 0
KLA1 190902Z 00000KT 05/03 A2998 RMK A01 T00450029  RH  089%=      5-min Rain = 0
KLA1 190903Z 30000KT 05/03 A2998 RMK A01 T00450029  RH  089%=      5-min Rain = 0
KLA1 190904Z 00000KT 05/03 A2997 RMK A01 T00450029  RH  090%=      5-min Rain = 0
KLA1 190905Z 00000KT 05/03 A2997 RMK A01 T00450031  RH  090%=      5-min Rain = 0
KLA1 190906Z 30000KT 05/03 A2998 RMK A01 T00460032  RH  091%=      5-min Rain = 0
KLA1 190907Z 30001KT 05/03 A2998 RMK A01 T00460032  RH  090%=      5-min Rain = 0
KLA1 190908Z 00000KT 05/03 A2998 RMK A01 T00470033  RH  090%=      5-min Rain = 0
KLA1 190909Z 00000KT 05/03 A2998 RMK A01 T00470033  RH  090%=      5-min Rain = 0
KLA1 190910Z 30001KT 05/03 A2998 RMK A01 T00490034  RH  091%=      5-min Rain = 0
KLA1 190911Z 30001KT 05/03 A2998 RMK A01 T00490034  RH  090%=      5-min Rain = 0
KLA1 190912Z 31001KT 05/03 A2998 RMK A01 T00490034  RH  090%=      5-min Rain = 0
KLA1 190913Z 32001KT 05/03 A2998 RMK A01 T00490034  RH  090%=      5-min Rain = 0
KLA1 190914Z 07001KT 05/03 A2998 RMK A01 T00490033  RH  089%=      5-min Rain = 0
KLA1 190915Z 09001KT 05/03 A2998 RMK A01 T00490033  RH  089%=      5-min Rain = 0
KLA1 190916Z 09001KT 05/03 A2998 RMK A01 T00500034  RH  089%=      5-min Rain = 0
KLA1 190917Z 09001KT 05/03 A2998 RMK A01 T00500033  RH  089%=      5-min Rain = 0
KLA1 190918Z 09001KT 05/03 A2998 RMK A01 T00500033  RH  089%=      5-min Rain = 0
KLA1 190919Z 08001KT 05/03 A2998 RMK A01 T00500033  RH  089%=      5-min Rain = 0
KLA1 190920Z 08002KT 05/04 A2998 RMK A01 T00500035  RH  090%=      5-min Rain = 0
KLA1 190921Z 09002KT 05/04 A2998 RMK A01 T00510036  RH  090%=      5-min Rain = 0
KLA1 190922Z 09002KT 05/04 A2998 RMK A01 T00520035  RH  089%=      5-min Rain = 0
KLA1 190923Z 10001KT 05/03 A2998 RMK A01 T00510034  RH  089%=      5-min Rain = 0
KLA1 190924Z 08001KT 05/04 A2998 RMK A01 T00520036  RH  089%=      5-min Rain = 0
KLA1 190925Z 07001KT 05/04 A2998 RMK A01 T00530037  RH  089%=      5-min Rain = 0
KLA1 190926Z 05001KT 05/04 A2998 RMK A01 T00530037  RH  089%=      5-min Rain = 0
KLA1 190927Z 05001KT 05/04 A2998 RMK A01 T00540038  RH  089%=      5-min Rain = 0
KLA1 190928Z 04001KT 06/04 A2998 RMK A01 T00550039  RH  089%=      5-min Rain = 0
KLA1 190929Z 04001KT 06/04 A2998 RMK A01 T00550038  RH  088%=      5-min Rain = 0
KLA1 190930Z 04001KT 06/04 A2998 RMK A01 T00550037  RH  088%=      5-min Rain = 0
KLA1 190931Z 04001KT 06/04 A2998 RMK A01 T00550036  RH  088%=      5-min Rain = 0
KLA1 190932Z 03001KT 06/04 A2998 RMK A01 T00550036  RH  088%=      5-min Rain = 0
KLA1 190933Z 02002KT 05/04 A2998 RMK A01 T00540035  RH  088%=      5-min Rain = 0
KLA1 190934Z 02002KT 05/03 A2998 RMK A01 T00530034  RH  087%=      5-min Rain = 0
KLA1 190935Z 02002KT 05/03 A2998 RMK A01 T00510031  RH  087%=      5-min Rain = 0
KLA1 190936Z 02002KT 05/03 A2998 RMK A01 T00490028  RH  087%=      5-min Rain = 0
KLA1 190937Z 00001KT 05/03 A2998 RMK A01 T00460026  RH  087%=      5-min Rain = 0
KLA1 190938Z 36001KT 04/03 A2998 RMK A01 T00440025  RH  087%=      5-min Rain = 0
KLA1 190939Z 00002KT 04/03 A2998 RMK A01 T00430025  RH  088%=      5-min Rain = 0
KLA1 190940Z 00002KT 04/03 A2998 RMK A01 T00430026  RH  089%=      5-min Rain = 0
KLA1 190941Z 00001KT 04/03 A2998 RMK A01 T00420026  RH  089%=      5-min Rain = 0
KLA1 190942Z 00000KT 04/03 A2998 RMK A01 T00420026  RH  089%=      5-min Rain = 0
KLA1 190943Z 00000KT 04/03 A2998 RMK A01 T00420026  RH  090%=      5-min Rain = 0
KLA1 190944Z 00000KT 04/03 A2998 RMK A01 T00410026  RH  090%=      5-min Rain = 0
KLA1 190945Z 00000KT 04/03 A2998 RMK A01 T00410026  RH  090%=      5-min Rain = 0
KLA1 190946Z 00000KT 04/03 A2998 RMK A01 T00410027  RH  090%=      5-min Rain = 0
KLA1 190947Z 00000KT 04/03 A2998 RMK A01 T00410027  RH  091%=      5-min Rain = 0
KLA1 190948Z 00000KT 04/03 A2998 RMK A01 T00410027  RH  091%=      5-min Rain = 0
KLA1 190949Z 00000KT 04/03 A2998 RMK A01 T00410028  RH  091%=      5-min Rain = 0
KLA1 190950Z 00000KT 04/03 A2998 RMK A01 T00410028  RH  091%=      5-min Rain = 0
KLA1 190951Z 00000KT 04/03 A2998 RMK A01 T00410028  RH  092%=      5-min Rain = 0
KLA1 190952Z 00000KT 04/03 A2998 RMK A01 T00410028  RH  092%=      5-min Rain = 0
KLA1 190953Z 00000KT 04/03 A2998 RMK A01 T00410029  RH  092%=      5-min Rain = 0
KLA1 190954Z 00000KT 04/03 A2998 RMK A01 T00410029  RH  092%=      5-min Rain = 0
KLA1 190955Z 00000KT 04/03 A2998 RMK A01 T00400027  RH  092%=      5-min Rain = 0
KLA1 190956Z 00000KT 04/03 A2998 RMK A01 T00390026  RH  091%=      5-min Rain = 0
KLA1 190957Z 00000KT 04/02 A2998 RMK A01 T00380024  RH  091%=      5-min Rain = 0
KLA1 190958Z 00000KT 04/02 A2998 RMK A01 T00370023  RH  091%=      5-min Rain = 0
KLA1 190959Z 00000KT 04/02 A2998 RMK A01 T00370024  RH  091%=      5-min Rain = 0
KLA1 191000Z 00000KT 04/03 A2998 RMK A01 T00370025  RH  092%=      5-min Rain = 0
KLA1 191001Z 00000KT 04/03 A2998 RMK A01 T00370025  RH  092%=      5-min Rain = 0
KLA1 191002Z 35000KT 04/03 A2998 RMK A01 T00370027  RH  093%=      5-min Rain = 0
KLA1 191003Z 00000KT 04/03 A2998 RMK A01 T00370028  RH  094%=      5-min Rain = 0
KLA1 191004Z 00000KT 04/03 A2998 RMK A01 T00380030  RH  095%=      5-min Rain = 0
KLA1 191005Z 00000KT 04/03 A2998 RMK A01 T00390031  RH  095%=      5-min Rain = 0
KLA1 191006Z 00000KT 04/03 A2998 RMK A01 T00390030  RH  094%=      5-min Rain = 0
KLA1 191007Z 00000KT 04/03 A2998 RMK A01 T00390030  RH  094%=      5-min Rain = 0
KLA1 191008Z 00000KT 04/03 A2998 RMK A01 T00380030  RH  094%=      5-min Rain = 0
KLA1 191009Z 00000KT 04/03 A2998 RMK A01 T00390031  RH  095%=      5-min Rain = 0
KLA1 191010Z 00000KT 04/03 A2998 RMK A01 T00400033  RH  096%=      5-min Rain = 0
KLA1 191016Z 05001KT 04/03 A2998 RMK A01 T00390030  RH  094%=      5-min Rain = 0
KLA1 191017Z 05001KT 04/03 A2998 RMK A01 T00400032  RH  095%=      5-min Rain = 0
KLA1 191018Z 04001KT 04/03 A2998 RMK A01 T00400033  RH  095%=      5-min Rain = 0
KLA1 191019Z 05000KT 04/04 A2998 RMK A01 T00430037  RH  096%=      5-min Rain = 0
KLA1 191020Z 08000KT 04/04 A2998 RMK A01 T00440038  RH  096%=      5-min Rain = 0
KLA1 191021Z 03001KT 05/04 A2998 RMK A01 T00450039  RH  096%=      5-min Rain = 0
KLA1 191022Z 01001KT 05/04 A2998 RMK A01 T00470040  RH  096%=      5-min Rain = 0
KLA1 191023Z 01000KT 05/04 A2998 RMK A01 T00490042  RH  096%=      5-min Rain = 0
KLA1 191024Z 01001KT 05/04 A2998 RMK A01 T00500043  RH  095%=      5-min Rain = 0
KLA1 191025Z 01001KT 05/04 A2998 RMK A01 T00510043  RH  094%=      5-min Rain = 0
KLA1 191026Z 00000KT 05/04 A2998 RMK A01 T00520041  RH  093%=      5-min Rain = 0
KLA1 191027Z 00000KT 05/04 A2998 RMK A01 T00500035  RH  090%=      5-min Rain = 0
KLA1 191028Z 00000KT 05/03 A2998 RMK A01 T00460030  RH  089%=      5-min Rain = 0
KLA1 191029Z 01000KT 04/03 A2998 RMK A01 T00440026  RH  088%=      5-min Rain = 0
KLA1 191030Z 00000KT 04/03 A2998 RMK A01 T00420025  RH  089%=      5-min Rain = 0
KLA1 191031Z 00000KT 04/03 A2998 RMK A01 T00410025  RH  089%=      5-min Rain = 0
KLA1 191032Z 00000KT 04/03 A2998 RMK A01 T00400026  RH  090%=      5-min Rain = 0
KLA1 191033Z 00000KT 04/03 A2998 RMK A01 T00400028  RH  092%=      5-min Rain = 0
KLA1 191034Z 00000KT 04/03 A2998 RMK A01 T00400031  RH  094%=      5-min Rain = 0
KLA1 191035Z 00000KT 04/03 A2998 RMK A01 T00420033  RH  094%=      5-min Rain = 0
KLA1 191036Z 00000KT 04/04 A2998 RMK A01 T00420035  RH  095%=      5-min Rain = 0
KLA1 191037Z 00000KT 04/04 A2998 RMK A01 T00430036  RH  096%=      5-min Rain = 0
KLA1 191038Z 00000KT 04/04 A2998 RMK A01 T00440038  RH  096%=      5-min Rain = 0
KLA1 191039Z 00000KT 05/04 A2998 RMK A01 T00450038  RH  096%=      5-min Rain = 0
KLA1 191040Z 00000KT 05/04 A2998 RMK A01 T00450038  RH  095%=      5-min Rain = 0
KLA1 191041Z 00000KT 04/04 A2998 RMK A01 T00440035  RH  094%=      5-min Rain = 0
KLA1 191042Z 00000KT 04/03 A2998 RMK A01 T00420032  RH  093%=      5-min Rain = 0
KLA1 191043Z 00000KT 04/03 A2998 RMK A01 T00410030  RH  093%=      5-min Rain = 0
KLA1 191044Z 00000KT 04/03 A2998 RMK A01 T00400029  RH  093%=      5-min Rain = 0
KLA1 191045Z 00000KT 04/03 A2998 RMK A01 T00390029  RH  093%=      5-min Rain = 0
KLA1 191046Z 00000KT 04/03 A2998 RMK A01 T00390029  RH  093%=      5-min Rain = 0
KLA1 191047Z 00000KT 04/03 A2998 RMK A01 T00380029  RH  093%=      5-min Rain = 0
KLA1 191048Z 00000KT 04/03 A2998 RMK A01 T00370028  RH  093%=      5-min Rain = 0
KLA1 191049Z 00000KT 04/03 A2998 RMK A01 T00370027  RH  093%=      5-min Rain = 0
KLA1 191050Z 00000KT 04/03 A2998 RMK A01 T00360026  RH  093%=      5-min Rain = 0
KLA1 191051Z 00000KT 04/03 A2998 RMK A01 T00360027  RH  094%=      5-min Rain = 0
KLA1 191052Z 00000KT 04/03 A2998 RMK A01 T00360028  RH  095%=      5-min Rain = 0
KLA1 191053Z 05000KT 04/03 A2998 RMK A01 T00360030  RH  096%=      5-min Rain = 0
KLA1 191054Z 05000KT 04/03 A2998 RMK A01 T00370033  RH  097%=      5-min Rain = 0
KLA1 191055Z 05001KT 04/04 A2998 RMK A01 T00390035  RH  098%=      5-min Rain = 0
KLA1 191056Z 03001KT 04/04 A2998 RMK A01 T00400037  RH  098%=      5-min Rain = 0
KLA1 191057Z 03002KT 04/04 A2998 RMK A01 T00420039  RH  098%=      5-min Rain = 0
KLA1 191058Z 03002KT 04/04 A2998 RMK A01 T00430039  RH  098%=      5-min Rain = 0
KLA1 191059Z 03002KT 04/04 A2998 RMK A01 T00440040  RH  097%=      5-min Rain = 0
KLA1 191100Z 03002KT 05/04 A2998 RMK A01 T00450041  RH  097%=      5-min Rain = 0
KLA1 191101Z 03001KT 05/04 A2998 RMK A01 T00480043  RH  097%=      5-min Rain = 0
KLA1 191102Z 03001KT 05/04 A2998 RMK A01 T00500044  RH  096%=      5-min Rain = 0
KLA1 191103Z 03001KT 05/05 A2998 RMK A01 T00520045  RH  095%=      5-min Rain = 0
KLA1 191104Z 02001KT 05/04 A2998 RMK A01 T00530044  RH  094%=      5-min Rain = 0
KLA1 191105Z 02001KT 05/04 A2998 RMK A01 T00530041  RH  092%=      5-min Rain = 0
KLA1 191106Z 00000KT 05/03 A2998 RMK A01 T00490032  RH  089%=      5-min Rain = 0
KLA1 191107Z 02000KT 05/03 A2998 RMK A01 T00450027  RH  088%=      5-min Rain = 0
KLA1 191108Z 02000KT 04/02 A2998 RMK A01 T00400021  RH  087%=      5-min Rain = 0
KLA1 191109Z 00000KT 04/02 A2998 RMK A01 T00370020  RH  088%=      5-min Rain = 0
KLA1 191110Z 02001KT 04/02 A2998 RMK A01 T00360020  RH  089%=      5-min Rain = 0
KLA1 191111Z 02000KT 04/02 A2998 RMK A01 T00350020  RH  090%=      5-min Rain = 0
KLA1 191112Z 02001KT 03/02 A2998 RMK A01 T00340020  RH  090%=      5-min Rain = 0
KLA1 191113Z 02000KT 03/02 A2998 RMK A01 T00330019  RH  091%=      5-min Rain = 0
KLA1 191114Z 02000KT 03/02 A2998 RMK A01 T00320019  RH  091%=      5-min Rain = 0
KLA1 191115Z 02000KT 03/02 A2998 RMK A01 T00310019  RH  092%=      5-min Rain = 0
KLA1 191116Z 02000KT 03/02 A2998 RMK A01 T00300019  RH  092%=      5-min Rain = 0
KLA1 191117Z 02000KT 03/02 A2998 RMK A01 T00300019  RH  093%=      5-min Rain = 0
KLA1 191118Z 02000KT 03/02 A2998 RMK A01 T00300020  RH  093%=      5-min Rain = 0
KLA1 191119Z 02001KT 03/02 A2998 RMK A01 T00290020  RH  094%=      5-min Rain = 0
KLA1 191120Z 02000KT 03/02 A2998 RMK A01 T00290020  RH  094%=      5-min Rain = 0
KLA1 191121Z 00000KT 03/02 A2998 RMK A01 T00280020  RH  094%=      5-min Rain = 0
KLA1 191122Z 00000KT 03/02 A2998 RMK A01 T00280020  RH  094%=      5-min Rain = 0
KLA1 191123Z 00000KT 03/02 A2998 RMK A01 T00270020  RH  095%=      5-min Rain = 0
KLA1 191124Z 00000KT 03/02 A2998 RMK A01 T00270020  RH  095%=      5-min Rain = 0
KLA1 191125Z 00000KT 03/02 A2998 RMK A01 T00270020  RH  095%=      5-min Rain = 0
KLA1 191126Z 00000KT 03/02 A2998 RMK A01 T00260018  RH  095%=      5-min Rain = 0
KLA1 191127Z 00000KT 03/02 A2998 RMK A01 T00250018  RH  095%=      5-min Rain = 0
KLA1 191128Z 00000KT 03/02 A2998 RMK A01 T00250019  RH  096%=      5-min Rain = 0
KLA1 191129Z 00000KT 03/02 A2998 RMK A01 T00250021  RH  097%=      5-min Rain = 0
KLA1 191130Z 00000KT 03/02 A2998 RMK A01 T00260022  RH  097%=      5-min Rain = 0
KLA1 191131Z 00000KT 03/02 A2998 RMK A01 T00260022  RH  098%=      5-min Rain = 0
KLA1 191132Z 00000KT 03/02 A2998 RMK A01 T00260023  RH  098%=      5-min Rain = 0
KLA1 191133Z 00000KT 03/02 A2998 RMK A01 T00260023  RH  098%=      5-min Rain = 0
KLA1 191134Z 02000KT 03/03 A2998 RMK A01 T00270025  RH  098%=      5-min Rain = 0
KLA1 191135Z 02001KT 03/03 A2998 RMK A01 T00280026  RH  099%=      5-min Rain = 0
KLA1 191136Z 02002KT 03/03 A2998 RMK A01 T00290027  RH  099%=      5-min Rain = 0
KLA1 191137Z 01003KT 03/03 A2998 RMK A01 T00290028  RH  099%=      5-min Rain = 0
KLA1 191138Z 01003KT 03/03 A2998 RMK A01 T00300029  RH  099%=      5-min Rain = 0
KLA1 191139Z 01002KT 03/03 A2998 RMK A01 T00310030  RH  100%=      5-min Rain = 0
KLA1 191140Z 01002KT 03/03 A2998 RMK A01 T00310030  RH  099%=      5-min Rain = 0
KLA1 191141Z 01001KT 03/03 A2998 RMK A01 T00300029  RH  099%=      5-min Rain = 0
KLA1 191142Z 01000KT 03/03 A2998 RMK A01 T00310030  RH  099%=      5-min Rain = 0
KLA1 191143Z 00000KT 03/03 A2998 RMK A01 T00310031  RH  100%=      5-min Rain = 0
KLA1 191144Z 01000KT 03/03 A2998 RMK A01 T00320031  RH  100%=      5-min Rain = 0
KLA1 191145Z 01001KT 03/03 A2998 RMK A01 T00320031  RH  099%=      5-min Rain = 0
KLA1 191146Z 01001KT 03/03 A2998 RMK A01 T00310030  RH  099%=      5-min Rain = 0
KLA1 191147Z 01000KT 03/03 A2998 RMK A01 T00310029  RH  099%=      5-min Rain = 0
KLA1 191148Z 00000KT 03/03 A2998 RMK A01 T00300028  RH  098%=      5-min Rain = 0
KLA1 191149Z 00000KT 03/03 A2998 RMK A01 T00290026  RH  098%=      5-min Rain = 0
KLA1 191150Z 00000KT 03/02 A2998 RMK A01 T00270024  RH  098%=      5-min Rain = 0
KLA1 191151Z 00000KT 03/02 A2998 RMK A01 T00260023  RH  098%=      5-min Rain = 0
KLA1 191152Z 00000KT 03/02 A2998 RMK A01 T00260023  RH  098%=      5-min Rain = 0
KLA1 191153Z 00000KT 03/02 A2998 RMK A01 T00260022  RH  098%=      5-min Rain = 0
KLA1 191154Z 00000KT 03/02 A2998 RMK A01 T00250022  RH  098%=      5-min Rain = 0
KLA1 191155Z 00000KT 03/02 A2998 RMK A01 T00250022  RH  098%=      5-min Rain = 0
KLA1 191156Z 00000KT 03/02 A2998 RMK A01 T00250022  RH  098%=      5-min Rain = 0
KLA1 191157Z 00000KT 03/02 A2998 RMK A01 T00250023  RH  098%=      5-min Rain = 0
KLA1 191158Z 00000KT 03/02 A2998 RMK A01 T00250023  RH  099%=      5-min Rain = 0
KLA1 191159Z 00000KT 03/02 A2998 RMK A01 T00250023  RH  099%=      5-min Rain = 0
KLA1 191200Z 00000KT 03/02 A2998 RMK A01 T00250023  RH  099%=      5-min Rain = 0
KLA1 191201Z 00000KT 03/02 A2998 RMK A01 T00250023  RH  099%=      5-min Rain = 0
KLA1 191202Z 00000KT 03/02 A2998 RMK A01 T00250024  RH  099%=      5-min Rain = 0
KLA1 191203Z 00000KT 03/02 A2998 RMK A01 T00250024  RH  099%=      5-min Rain = 0
KLA1 191204Z 00000KT 03/02 A2998 RMK A01 T00250024  RH  099%=      5-min Rain = 0
KLA1 191205Z 02001KT 02/02 A2998 RMK A01 T00240022  RH  099%=      5-min Rain = 0
KLA1 191206Z 02002KT 02/02 A2998 RMK A01 T00240023  RH  099%=      5-min Rain = 0
KLA1 191207Z 02002KT 03/03 A2998 RMK A01 T00250025  RH  100%=      5-min Rain = 0
KLA1 191208Z 02001KT 03/03 A2998 RMK A01 T00270026  RH  100%=      5-min Rain = 0
KLA1 191209Z 02002KT 03/03 A2998 RMK A01 T00280028  RH  100%=      5-min Rain = 0
KLA1 191210Z 02001KT 03/03 A2998 RMK A01 T00300030  RH  100%=      5-min Rain = 0
KLA1 191211Z 02001KT 03/03 A2998 RMK A01 T00320032  RH  100%=      5-min Rain = 0
KLA1 191212Z 02000KT 03/03 A2998 RMK A01 T00340034  RH  100%=      5-min Rain = 0
KLA1 191213Z 02001KT 04/04 A2998 RMK A01 T00360036  RH  100%=      5-min Rain = 0
KLA1 191214Z 02000KT 04/04 A2998 RMK A01 T00380038  RH  100%=      5-min Rain = 0
KLA1 191215Z 02000KT 04/04 A2998 RMK A01 T00390039  RH  100%=      5-min Rain = 0
KLA1 191216Z 02001KT 04/04 A2998 RMK A01 T00410041  RH  100%=      5-min Rain = 0
KLA1 191217Z 02001KT 04/04 A2998 RMK A01 T00420042  RH  100%=      5-min Rain = 0
KLA1 191218Z 02001KT 04/04 A2998 RMK A01 T00420042  RH  100%=      5-min Rain = 0
KLA1 191219Z 02000KT 04/04 A2998 RMK A01 T00420042  RH  100%=      5-min Rain = 0
KLA1 191220Z 02001KT 04/04 A2998 RMK A01 T00400038  RH  099%=      5-min Rain = 0
KLA1 191221Z 02000KT 04/04 A2998 RMK A01 T00390036  RH  098%=      5-min Rain = 0
KLA1 191222Z 00000KT 04/04 A2998 RMK A01 T00380035  RH  098%=      5-min Rain = 0
KLA1 191223Z 00000KT 04/04 A2998 RMK A01 T00380035  RH  098%=      5-min Rain = 0
KLA1 191224Z 00000KT 04/04 A2998 RMK A01 T00380036  RH  099%=      5-min Rain = 0
KLA1 191225Z 00000KT 04/03 A2998 RMK A01 T00370034  RH  098%=      5-min Rain = 0
KLA1 191226Z 00000KT 04/03 A2998 RMK A01 T00360032  RH  098%=      5-min Rain = 0
KLA1 191227Z 00000KT 03/03 A2998 RMK A01 T00340031  RH  097%=      5-min Rain = 0
KLA1 191228Z 00000KT 03/03 A2998 RMK A01 T00340030  RH  098%=      5-min Rain = 0
KLA1 191229Z 01000KT 03/03 A2998 RMK A01 T00330029  RH  098%=      5-min Rain = 0
KLA1 191230Z 26001KT 03/03 A2998 RMK A01 T00300027  RH  097%=      5-min Rain = 0
KLA1 191231Z 25001KT 03/03 A2998 RMK A01 T00290025  RH  097%=      5-min Rain = 0
KLA1 191232Z 25001KT 03/02 A2998 RMK A01 T00270023  RH  097%=      5-min Rain = 0
KLA1 191233Z 25001KT 03/02 A2998 RMK A01 T00260023  RH  097%=      5-min Rain = 0
KLA1 191234Z 25001KT 03/02 A2998 RMK A01 T00250022  RH  098%=      5-min Rain = 0
KLA1 191235Z 25000KT 03/02 A2998 RMK A01 T00250022  RH  098%=      5-min Rain = 0
KLA1 191236Z 25000KT 02/02 A2998 RMK A01 T00240022  RH  098%=      5-min Rain = 0
KLA1 191237Z 00000KT 02/02 A2998 RMK A01 T00240022  RH  098%=      5-min Rain = 0
KLA1 191238Z 00000KT 02/02 A2998 RMK A01 T00240021  RH  098%=      5-min Rain = 0
KLA1 191239Z 00000KT 02/02 A2998 RMK A01 T00240022  RH  099%=      5-min Rain = 0
KLA1 191240Z 00000KT 02/02 A2998 RMK A01 T00240022  RH  099%=      5-min Rain = 0
KLA1 191241Z 00000KT 02/02 A2998 RMK A01 T00220020  RH  098%=      5-min Rain = 0
KLA1 191242Z 00000KT 02/02 A2998 RMK A01 T00210019  RH  098%=      5-min Rain = 0
KLA1 191243Z 00000KT 02/02 A2998 RMK A01 T00200018  RH  098%=      5-min Rain = 0
KLA1 191244Z 00000KT 02/02 A2999 RMK A01 T00190017  RH  098%=      5-min Rain = 0
KLA1 191245Z 00000KT 02/02 A2999 RMK A01 T00200019  RH  099%=      5-min Rain = 0
KLA1 191246Z 00000KT 02/02 A2999 RMK A01 T00200020  RH  100%=      5-min Rain = 0
KLA1 191247Z 00000KT 02/02 A2999 RMK A01 T00200020  RH  100%=      5-min Rain = 0
KLA1 191248Z 00000KT 02/02 A2999 RMK A01 T00200020  RH  100%=      5-min Rain = 0
KLA1 191249Z 00000KT 02/02 A2999 RMK A01 T00190019  RH  100%=      5-min Rain = 0
KLA1 191250Z 00000KT 02/02 A2999 RMK A01 T00200020  RH  100%=      5-min Rain = 0
KLA1 191251Z 00000KT 02/02 A2999 RMK A01 T00210021  RH  100%=      5-min Rain = 0
KLA1 191252Z 00000KT 02/02 A2999 RMK A01 T00220021  RH  100%=      5-min Rain = 0
KLA1 191253Z 00000KT 02/02 A2999 RMK A01 T00220022  RH  100%=      5-min Rain = 0
KLA1 191254Z 00000KT 02/02 A2999 RMK A01 T00230023  RH  100%=      5-min Rain = 0
KLA1 191255Z 00000KT 02/02 A2999 RMK A01 T00240023  RH  100%=      5-min Rain = 0
KLA1 191256Z 00000KT 02/02 A2999 RMK A01 T00240024  RH  100%=      5-min Rain = 0
KLA1 191257Z 00000KT 03/03 A2999 RMK A01 T00250025  RH  100%=      5-min Rain = 0
KLA1 191258Z 00000KT 03/03 A2999 RMK A01 T00260025  RH  100%=      5-min Rain = 0
KLA1 191259Z 00000KT 03/03 A2999 RMK A01 T00260026  RH  100%=      5-min Rain = 0
KLA1 191300Z 00000KT 03/03 A2999 RMK A01 T00260026  RH  100%=      5-min Rain = 0
KLA1 191301Z 00000KT 03/03 A2999 RMK A01 T00260026  RH  100%=      5-min Rain = 0
KLA1 191302Z 00000KT 03/03 A2999 RMK A01 T00270026  RH  100%=      5-min Rain = 0
KLA1 191303Z 00000KT 03/03 A2999 RMK A01 T00270027  RH  100%=      5-min Rain = 0
KLA1 191304Z 00000KT 03/03 A2999 RMK A01 T00280028  RH  100%=      5-min Rain = 0
KLA1 191305Z 00000KT 03/03 A2999 RMK A01 T00290029  RH  100%=      5-min Rain = 0
KLA1 191306Z 00000KT 03/03 A2999 RMK A01 T00280028  RH  100%=      5-min Rain = 0
KLA1 191307Z 00000KT 03/03 A2999 RMK A01 T00280028  RH  100%=      5-min Rain = 0
KLA1 191308Z 00000KT 03/03 A2999 RMK A01 T00260026  RH  100%=      5-min Rain = 0
KLA1 191309Z 00000KT 02/02 A2999 RMK A01 T00240024  RH  100%=      5-min Rain = 0
KLA1 191310Z 25000KT 02/02 A2999 RMK A01 T00230023  RH  100%=      5-min Rain = 0
KLA1 191311Z 25000KT 02/02 A2999 RMK A01 T00220022  RH  100%=      5-min Rain = 0
KLA1 191312Z 00000KT 02/02 A2999 RMK A01 T00220022  RH  100%=      5-min Rain = 0
KLA1 191313Z 00000KT 02/02 A2999 RMK A01 T00220022  RH  100%=      5-min Rain = 0
KLA1 191314Z 00000KT 02/02 A2999 RMK A01 T00220022  RH  100%=      5-min Rain = 0
KLA1 191315Z 00000KT 02/02 A2999 RMK A01 T00230023  RH  100%=      5-min Rain = 0
KLA1 191316Z 00000KT 03/03 A2999 RMK A01 T00250025  RH  100%=      5-min Rain = 0
KLA1 191317Z 00000KT 03/03 A2999 RMK A01 T00270027  RH  100%=      5-min Rain = 0
KLA1 191318Z 00000KT 03/03 A2999 RMK A01 T00280028  RH  100%=      5-min Rain = 0
KLA1 191319Z 00000KT 03/03 A2999 RMK A01 T00280028  RH  100%=      5-min Rain = 0
KLA1 191320Z 26000KT 03/03 A2999 RMK A01 T00290029  RH  100%=      5-min Rain = 0
KLA1 191321Z 27002KT 03/03 A2999 RMK A01 T00290029  RH  100%=      5-min Rain = 0
KLA1 191322Z 27002KT 03/03 A2999 RMK A01 T00290029  RH  100%=      5-min Rain = 0
KLA1 191323Z 27002KT 03/03 A2999 RMK A01 T00290029  RH  100%=      5-min Rain = 0
KLA1 191324Z 27002KT 03/03 A2999 RMK A01 T00280028  RH  100%=      5-min Rain = 0
KLA1 191325Z 27001KT 03/03 A2999 RMK A01 T00270027  RH  100%=      5-min Rain = 0
KLA1 191326Z 27001KT 03/03 A2999 RMK A01 T00270027  RH  100%=      5-min Rain = 0
KLA1 191327Z 27001KT 03/03 A2999 RMK A01 T00260026  RH  100%=      5-min Rain = 0
KLA1 191328Z 27000KT 03/03 A2999 RMK A01 T00270026  RH  100%=      5-min Rain = 0
KLA1 191329Z 27000KT 03/03 A2999 RMK A01 T00260026  RH  100%=      5-min Rain = 0
KLA1 191330Z 27000KT 03/03 A30 RMK A01 T00270027  RH  100%=      5-min Rain = 0
KLA1 191331Z 00000KT 03/03 A30 RMK A01 T00270027  RH  100%=      5-min Rain = 0
KLA1 191332Z 00000KT 03/03 A30 RMK A01 T00270027  RH  100%=      5-min Rain = 0
KLA1 191333Z 00000KT 03/03 A30 RMK A01 T00260026  RH  100%=      5-min Rain = 0
KLA1 191334Z 00000KT 03/03 A30 RMK A01 T00270027  RH  100%=      5-min Rain = 0
KLA1 191335Z 00000KT 03/03 A30 RMK A01 T00260026  RH  100%=      5-min Rain = 0
KLA1 191336Z 00000KT 03/03 A30 RMK A01 T00270027  RH  100%=      5-min Rain = 0
KLA1 191337Z 00000KT 03/03 A30 RMK A01 T00270027  RH  100%=      5-min Rain = 0
KLA1 191338Z 00000KT 03/03 A30 RMK A01 T00280028  RH  100%=      5-min Rain = 0
KLA1 191339Z 00000KT 03/03 A30 RMK A01 T00280028  RH  100%=      5-min Rain = 0
KLA1 191340Z 00000KT 03/03 A30 RMK A01 T00280028  RH  100%=      5-min Rain = 0
KLA1 191341Z 00000KT 03/03 A30 RMK A01 T00290029  RH  100%=      5-min Rain = 0
KLA1 191342Z 00000KT 03/03 A30 RMK A01 T00290029  RH  100%=      5-min Rain = 0
KLA1 191343Z 00000KT 03/03 A30 RMK A01 T00300030  RH  100%=      5-min Rain = 0
KLA1 191344Z 00000KT 03/03 A30 RMK A01 T00310031  RH  100%=      5-min Rain = 0
KLA1 191345Z 00000KT 03/03 A30 RMK A01 T00310030  RH  100%=      5-min Rain = 0
KLA1 191346Z 27000KT 03/03 A30 RMK A01 T00300030  RH  100%=      5-min Rain = 0
KLA1 191347Z 27001KT 03/03 A30 RMK A01 T00300030  RH  100%=      5-min Rain = 0
KLA1 191348Z 27001KT 03/03 A30 RMK A01 T00300030  RH  100%=      5-min Rain = 0
KLA1 191349Z 27001KT 03/03 A30 RMK A01 T00290029  RH  100%=      5-min Rain = 0
KLA1 191350Z 27001KT 03/03 A30 RMK A01 T00290029  RH  100%=      5-min Rain = 0
KLA1 191351Z 27001KT 03/03 A30 RMK A01 T00290029  RH  100%=      5-min Rain = 0
KLA1 191352Z 27002KT 03/03 A30 RMK A01 T00290029  RH  100%=      5-min Rain = 0
KLA1 191353Z 27001KT 03/03 A30 RMK A01 T00290029  RH  100%=      5-min Rain = 0
KLA1 191354Z 27001KT 03/03 A30 RMK A01 T00290029  RH  100%=      5-min Rain = 0
KLA1 191355Z 27001KT 03/03 A30 RMK A01 T00290029  RH  100%=      5-min Rain = 0
KLA1 191356Z 27001KT 03/03 A30 RMK A01 T00290029  RH  100%=      5-min Rain = 0
KLA1 191357Z 27002KT 03/03 A30 RMK A01 T00290029  RH  100%=      5-min Rain = 0
KLA1 191358Z 27002KT 03/03 A30 RMK A01 T00300030  RH  100%=      5-min Rain = 0
KLA1 191359Z 27002KT 03/03 A30 RMK A01 T00300030  RH  100%=      5-min Rain = 0
KLA1 191400Z 27002KT 03/03 A30 RMK A01 T00300030  RH  100%=      5-min Rain = 0
KLA1 191401Z 27001KT 03/03 A30 RMK A01 T00300030  RH  100%=      5-min Rain = 0
KLA1 191402Z 27001KT 03/03 A30 RMK A01 T00310030  RH  100%=      5-min Rain = 0
KLA1 191403Z 27001KT 03/03 A30 RMK A01 T00310031  RH  100%=      5-min Rain = 0
KLA1 191404Z 27000KT 03/03 A30 RMK A01 T00310031  RH  100%=      5-min Rain = 0
KLA1 191405Z 00000KT 03/03 A30 RMK A01 T00320032  RH  100%=      5-min Rain = 0
KLA1 191406Z 00000KT 03/03 A30 RMK A01 T00320032  RH  100%=      5-min Rain = 0
KLA1 191407Z 00000KT 03/03 A30 RMK A01 T00330033  RH  100%=      5-min Rain = 0
KLA1 191408Z 00000KT 03/03 A30 RMK A01 T00340034  RH  100%=      5-min Rain = 0
KLA1 191409Z 00000KT 03/03 A30 RMK A01 T00340034  RH  100%=      5-min Rain = 0
KLA1 191410Z 00000KT 03/03 A30 RMK A01 T00340034  RH  100%=      5-min Rain = 0
KLA1 191411Z 00000KT 04/04 A30 RMK A01 T00350035  RH  100%=      5-min Rain = 0
KLA1 191412Z 00000KT 04/04 A30 RMK A01 T00350035  RH  100%=      5-min Rain = 0
KLA1 191413Z 00000KT 04/04 A30 RMK A01 T00350035  RH  100%=      5-min Rain = 0
KLA1 191414Z 00000KT 04/04 A30 RMK A01 T00360036  RH  100%=      5-min Rain = 0
KLA1 191415Z 00000KT 04/04 A30 RMK A01 T00360036  RH  100%=      5-min Rain = 0
KLA1 191416Z 00000KT 04/04 A30 RMK A01 T00360036  RH  100%=      5-min Rain = 0
KLA1 191417Z 00000KT 04/04 A30 RMK A01 T00370036  RH  100%=      5-min Rain = 0
KLA1 191418Z 00000KT 04/04 A30 RMK A01 T00380037  RH  100%=      5-min Rain = 0
KLA1 191419Z 00000KT 04/04 A30 RMK A01 T00380038  RH  099%=      5-min Rain = 0
KLA1 191420Z 00000KT 04/04 A30 RMK A01 T00390038  RH  099%=      5-min Rain = 0
KLA1 191421Z 00000KT 04/04 A30 RMK A01 T00390038  RH  099%=      5-min Rain = 0
KLA1 191422Z 00000KT 04/04 A30 RMK A01 T00400038  RH  099%=      5-min Rain = 0
KLA1 191423Z 00000KT 04/04 A30 RMK A01 T00400038  RH  098%=      5-min Rain = 0
KLA1 191424Z 00000KT 04/04 A30 RMK A01 T00400037  RH  098%=      5-min Rain = 0
KLA1 191425Z 00000KT 04/04 A30 RMK A01 T00410038  RH  098%=      5-min Rain = 0
KLA1 191426Z 00000KT 04/04 A30 RMK A01 T00420039  RH  098%=      5-min Rain = 0
KLA1 191427Z 00000KT 04/04 A30 RMK A01 T00440040  RH  097%=      5-min Rain = 0
KLA1 191428Z 00000KT 05/04 A30 RMK A01 T00460042  RH  097%=      5-min Rain = 0
KLA1 191429Z 00000KT 05/04 A30 RMK A01 T00490044  RH  097%=      5-min Rain = 0
KLA1 191430Z 00000KT 05/05 A30 RMK A01 T00520046  RH  096%=      5-min Rain = 0
KLA1 191431Z 00000KT 05/05 A30 RMK A01 T00540046  RH  095%=      5-min Rain = 0
KLA1 191432Z 00000KT 06/05 A30 RMK A01 T00560045  RH  093%=      5-min Rain = 0
KLA1 191433Z 00000KT 06/04 A30 RMK A01 T00570044  RH  091%=      5-min Rain = 0
KLA1 191434Z 00000KT 06/04 A30 RMK A01 T00580043  RH  090%=      5-min Rain = 0
KLA1 191435Z 00000KT 06/04 A30 RMK A01 T00590043  RH  089%=      5-min Rain = 0
KLA1 191436Z 00000KT 06/04 A30 RMK A01 T00600042  RH  088%=      5-min Rain = 0
KLA1 191437Z 24000KT 06/04 A30 RMK A01 T00610042  RH  088%=      5-min Rain = 0
KLA1 191438Z 00000KT 06/04 A3001 RMK A01 T00610042  RH  088%=      5-min Rain = 0
KLA1 191439Z 00000KT 06/04 A3001 RMK A01 T00620043  RH  088%=      5-min Rain = 0
KLA1 191440Z 00000KT 06/04 A3001 RMK A01 T00610043  RH  088%=      5-min Rain = 0
KLA1 191441Z 00000KT 06/04 A3001 RMK A01 T00620043  RH  088%=      5-min Rain = 0
KLA1 191442Z 00000KT 06/04 A3001 RMK A01 T00620043  RH  088%=      5-min Rain = 0
KLA1 191443Z 00000KT 06/05 A30 RMK A01 T00630045  RH  088%=      5-min Rain = 0
KLA1 191444Z 24000KT 07/05 A30 RMK A01 T00650046  RH  088%=      5-min Rain = 0
KLA1 191445Z 14000KT 07/05 A30 RMK A01 T00660046  RH  087%=      5-min Rain = 0
KLA1 191446Z 14000KT 07/05 A30 RMK A01 T00670046  RH  086%=      5-min Rain = 0
KLA1 191447Z 00000KT 07/05 A30 RMK A01 T00700048  RH  086%=      5-min Rain = 0
KLA1 191448Z 14000KT 07/05 A30 RMK A01 T00730050  RH  086%=      5-min Rain = 0
KLA1 191449Z 14001KT 08/05 A3001 RMK A01 T00750049  RH  084%=      5-min Rain = 0
KLA1 191450Z 15001KT 08/05 A3001 RMK A01 T00760048  RH  082%=      5-min Rain = 0
KLA1 191451Z 14001KT 08/05 A3001 RMK A01 T00770047  RH  081%=      5-min Rain = 0
KLA1 191452Z 14001KT 08/05 A30 RMK A01 T00790047  RH  080%=      5-min Rain = 0
KLA1 191453Z 14001KT 08/05 A30 RMK A01 T00790046  RH  079%=      5-min Rain = 0
KLA1 191454Z 13001KT 08/05 A30 RMK A01 T00800046  RH  079%=      5-min Rain = 0
KLA1 191455Z 13001KT 08/05 A30 RMK A01 T00810047  RH  079%=      5-min Rain = 0
KLA1 191456Z 13001KT 08/05 A30 RMK A01 T00820047  RH  078%=      5-min Rain = 0
KLA1 191457Z 14001KT 08/05 A30 RMK A01 T00830047  RH  078%=      5-min Rain = 0
KLA1 191458Z 13000KT 08/05 A30 RMK A01 T00830047  RH  078%=      5-min Rain = 0
KLA1 191459Z 00000KT 08/05 A30 RMK A01 T00830047  RH  078%=      5-min Rain = 0
KLA1 191500Z 13000KT 08/05 A30 RMK A01 T00830048  RH  078%=      5-min Rain = 0
KLA1 191501Z 00000KT 08/05 A30 RMK A01 T00840049  RH  078%=      5-min Rain = 0
KLA1 191502Z 00000KT 09/05 A30 RMK A01 T00850049  RH  078%=      5-min Rain = 0
KLA1 191503Z 00000KT 09/05 A30 RMK A01 T00870050  RH  077%=      5-min Rain = 0
KLA1 191504Z 00000KT 09/05 A30 RMK A01 T00890050  RH  077%=      5-min Rain = 0
KLA1 191505Z 00000KT 09/05 A30 RMK A01 T00900050  RH  076%=      5-min Rain = 0
KLA1 191506Z 15000KT 09/05 A30 RMK A01 T00900050  RH  076%=      5-min Rain = 0
KLA1 191507Z 00000KT 09/05 A30 RMK A01 T00900050  RH  076%=      5-min Rain = 0
KLA1 191508Z 00000KT 09/05 A30 RMK A01 T00910051  RH  076%=      5-min Rain = 0
KLA1 191509Z 15000KT 09/05 A30 RMK A01 T00930053  RH  076%=      5-min Rain = 0
KLA1 191510Z 15000KT 10/05 A30 RMK A01 T00950054  RH  075%=      5-min Rain = 0
KLA1 191511Z 15000KT 10/05 A30 RMK A01 T00970054  RH  074%=      5-min Rain = 0
KLA1 191512Z 15000KT 10/06 A30 RMK A01 T01010056  RH  074%=      5-min Rain = 0
KLA1 191513Z 15000KT 10/06 A30 RMK A01 T01020055  RH  072%=      5-min Rain = 0
KLA1 191514Z 00000KT 10/05 A3001 RMK A01 T01020053  RH  072%=      5-min Rain = 0
KLA1 191515Z 15000KT 10/05 A3001 RMK A01 T01020054  RH  072%=      5-min Rain = 0
KLA1 191516Z 15000KT 10/05 A3001 RMK A01 T01020054  RH  072%=      5-min Rain = 0
KLA1 191517Z 15000KT 10/05 A3001 RMK A01 T01040054  RH  071%=      5-min Rain = 0
KLA1 191518Z 00000KT 11/05 A3001 RMK A01 T01050054  RH  071%=      5-min Rain = 0
KLA1 191519Z 15000KT 11/05 A3001 RMK A01 T01050054  RH  071%=      5-min Rain = 0
KLA1 191520Z 00000KT 11/06 A3001 RMK A01 T01050055  RH  071%=      5-min Rain = 0
KLA1 191521Z 00000KT 11/05 A3001 RMK A01 T01050054  RH  070%=      5-min Rain = 0
KLA1 191522Z 15000KT 11/05 A3001 RMK A01 T01050054  RH  071%=      5-min Rain = 0
KLA1 191523Z 15000KT 11/06 A3001 RMK A01 T01060055  RH  071%=      5-min Rain = 0
KLA1 191524Z 00000KT 11/05 A3001 RMK A01 T01070054  RH  070%=      5-min Rain = 0
KLA1 191525Z 00000KT 11/05 A3001 RMK A01 T01080054  RH  070%=      5-min Rain = 0
KLA1 191526Z 00000KT 11/05 A3001 RMK A01 T01070054  RH  070%=      5-min Rain = 0
KLA1 191527Z 00000KT 11/06 A3001 RMK A01 T01090056  RH  070%=      5-min Rain = 0
KLA1 191528Z 00000KT 11/06 A3001 RMK A01 T01110057  RH  070%=      5-min Rain = 0
KLA1 191529Z 16000KT 11/06 A3001 RMK A01 T01130058  RH  069%=      5-min Rain = 0
KLA1 191530Z 17000KT 11/06 A3001 RMK A01 T01140058  RH  069%=      5-min Rain = 0
KLA1 191531Z 21000KT 12/06 A3001 RMK A01 T01150057  RH  068%=      5-min Rain = 0
KLA1 191532Z 21000KT 12/06 A3001 RMK A01 T01150057  RH  067%=      5-min Rain = 0
KLA1 191533Z 21000KT 12/06 A3001 RMK A01 T01150057  RH  068%=      5-min Rain = 0
KLA1 191534Z 21000KT 12/06 A3001 RMK A01 T01160057  RH  067%=      5-min Rain = 0
KLA1 191535Z 20001KT 12/06 A3001 RMK A01 T01170059  RH  067%=      5-min Rain = 0
KLA1 191536Z 00000KT 12/06 A3001 RMK A01 T01190060  RH  067%=      5-min Rain = 0
KLA1 191537Z 00000KT 12/06 A3001 RMK A01 T01200059  RH  066%=      5-min Rain = 0
KLA1 191538Z 00000KT 12/06 A3001 RMK A01 T01220060  RH  066%=      5-min Rain = 0
KLA1 191539Z 18000KT 12/06 A3001 RMK A01 T01240062  RH  066%=      5-min Rain = 0
KLA1 191540Z 16001KT 13/06 A3001 RMK A01 T01270062  RH  065%=      5-min Rain = 0
KLA1 191541Z 16000KT 13/06 A3001 RMK A01 T01280062  RH  064%=      5-min Rain = 0
KLA1 191542Z 15002KT 13/06 A3001 RMK A01 T01300064  RH  064%=      5-min Rain = 0
KLA1 191543Z 13002KT 13/06 A3001 RMK A01 T01320063  RH  063%=      5-min Rain = 0
KLA1 191544Z 13001KT 13/06 A3001 RMK A01 T01340064  RH  062%=      5-min Rain = 0
KLA1 191545Z 13001KT 14/07 A3001 RMK A01 T01360065  RH  062%=      5-min Rain = 0
KLA1 191546Z 13002KT 14/07 A3001 RMK A01 T01390067  RH  062%=      5-min Rain = 0
KLA1 191547Z 12003KT 14/07 A3001 RMK A01 T01410065  RH  060%=      5-min Rain = 0
KLA1 191548Z 12002KT 14/06 A3001 RMK A01 T01400064  RH  060%=      5-min Rain = 0
KLA1 191549Z 12001KT 14/07 A3001 RMK A01 T01400065  RH  061%=      5-min Rain = 0
KLA1 191550Z 14001KT 14/07 A3001 RMK A01 T01410066  RH  061%=      5-min Rain = 0
KLA1 191551Z 14002KT 14/07 A3001 RMK A01 T01430066  RH  060%=      5-min Rain = 0
KLA1 191552Z 14002KT 14/07 A3001 RMK A01 T01440066  RH  060%=      5-min Rain = 0
KLA1 191553Z 12001KT 15/07 A3001 RMK A01 T01460068  RH  059%=      5-min Rain = 0
KLA1 191554Z 13002KT 15/07 A3001 RMK A01 T01470069  RH  059%=      5-min Rain = 0
KLA1 191555Z 14003KT 15/07 A3001 RMK A01 T01480070  RH  059%=      5-min Rain = 0
KLA1 191556Z 12004KT 15/07 A3001 RMK A01 T01490070  RH  059%=      5-min Rain = 0
KLA1 191557Z 14004KT 15/07 A3001 RMK A01 T01480071  RH  060%=      5-min Rain = 0
KLA1 191558Z 14004KT 15/07 A3001 RMK A01 T01500072  RH  060%=      5-min Rain = 0
KLA1 191559Z 14004KT 15/07 A3001 RMK A01 T01500072  RH  059%=      5-min Rain = 0
KLA1 191600Z 13005KT 15/07 A3001 RMK A01 T01500072  RH  059%=      5-min Rain = 0
KLA1 191601Z 13005KT 15/07 A3001 RMK A01 T01510072  RH  059%=      5-min Rain = 0
KLA1 191602Z 14006KT 15/07 A3001 RMK A01 T01510074  RH  060%=      5-min Rain = 0
KLA1 191603Z 14006KT 15/07 A3001 RMK A01 T01510073  RH  060%=      5-min Rain = 0
KLA1 191604Z 13005KT 15/07 A3001 RMK A01 T01520073  RH  059%=      5-min Rain = 0
KLA1 191605Z 13006KT 15/07 A3001 RMK A01 T01520073  RH  059%=      5-min Rain = 0
KLA1 191606Z 13005KT 15/07 A3001 RMK A01 T01530074  RH  059%=      5-min Rain = 0
KLA1 191607Z 13004KT 15/08 A3001 RMK A01 T01540075  RH  059%=      5-min Rain = 0
KLA1 191608Z 12004KT 16/08 A3001 RMK A01 T01560076  RH  059%=      5-min Rain = 0
KLA1 191609Z 13005KT 16/08 A3001 RMK A01 T01570075  RH  058%=      5-min Rain = 0
KLA1 191610Z 13004KT 16/08 A3001 RMK A01 T01570076  RH  058%=      5-min Rain = 0
KLA1 191611Z 12005KT 16/08 A3001 RMK A01 T01580075  RH  058%=      5-min Rain = 0
KLA1 191612Z 15005KT 16/08 A3001 RMK A01 T01560075  RH  058%=      5-min Rain = 0
KLA1 191613Z 12004KT 16/08 A3001 RMK A01 T01560076  RH  059%=      5-min Rain = 0
KLA1 191614Z 13005KT 16/08 A3001 RMK A01 T01570076  RH  059%=      5-min Rain = 0
KLA1 191615Z 14006KT 16/08 A3001 RMK A01 T01570076  RH  058%=      5-min Rain = 0
KLA1 191616Z 14006KT 16/08 A3001 RMK A01 T01570077  RH  059%=      5-min Rain = 0
KLA1 191617Z 14005KT 16/08 A3001 RMK A01 T01580078  RH  059%=      5-min Rain = 0
KLA1 191618Z 12005KT 16/08 A3001 RMK A01 T01580077  RH  059%=      5-min Rain = 0
KLA1 191619Z 13007KT 16/08 A3001 RMK A01 T01580077  RH  058%=      5-min Rain = 0
KLA1 191620Z 13008KT 16/08 A3001 RMK A01 T01580076  RH  058%=      5-min Rain = 0
KLA1 191621Z 13007KT 16/08 A3001 RMK A01 T01570077  RH  059%=      5-min Rain = 0
KLA1 191622Z 13006KT 16/08 A3001 RMK A01 T01580078  RH  059%=      5-min Rain = 0
KLA1 191623Z 14007KT 16/08 A3001 RMK A01 T01590079  RH  059%=      5-min Rain = 0
KLA1 191624Z 13008KT 16/08 A3001 RMK A01 T01610078  RH  058%=      5-min Rain = 0
KLA1 191625Z 13006KT 16/08 A3001 RMK A01 T01610078  RH  058%=      5-min Rain = 0
KLA1 191626Z 13004KT 16/08 A3001 RMK A01 T01620080  RH  058%=      5-min Rain = 0
KLA1 191627Z 15007KT 17/08 A3001 RMK A01 T01650080  RH  057%=      5-min Rain = 0
KLA1 191628Z 13009KT 17/08 A3001 RMK A01 T01660079  RH  057%=      5-min Rain = 0
KLA1 191629Z 13008KT 17/08 A3001 RMK A01 T01650080  RH  057%=      5-min Rain = 0
KLA1 191630Z 12008KT 17/08 A3001 RMK A01 T01650080  RH  057%=      5-min Rain = 0
KLA1 191631Z 12008KT 17/08 A3001 RMK A01 T01660080  RH  057%=      5-min Rain = 0
KLA1 191632Z 12006KT 17/08 A3001 RMK A01 T01670080  RH  056%=      5-min Rain = 0
KLA1 191633Z 13007KT 17/08 A3001 RMK A01 T01670080  RH  057%=      5-min Rain = 0
KLA1 191634Z 14006KT 17/08 A3001 RMK A01 T01670080  RH  056%=      5-min Rain = 0
KLA1 191635Z 13008KT 17/08 A3001 RMK A01 T01670081  RH  057%=      5-min Rain = 0
KLA1 191636Z 12005KT 17/08 A3001 RMK A01 T01670080  RH  056%=      5-min Rain = 0
KLA1 191637Z 14009KT 17/08 A3001 RMK A01 T01690082  RH  056%=      5-min Rain = 0
KLA1 191638Z 13008KT 17/08 A3001 RMK A01 T01710081  RH  055%=      5-min Rain = 0
KLA1 191639Z 14009KT 17/08 A3001 RMK A01 T01720081  RH  055%=      5-min Rain = 0
KLA1 191640Z 13006KT 17/08 A3001 RMK A01 T01710081  RH  055%=      5-min Rain = 0
KLA1 191641Z 13006KT 17/08 A3001 RMK A01 T01720082  RH  055%=      5-min Rain = 0
KLA1 191642Z 13008KT 17/08 A3001 RMK A01 T01740081  RH  054%=      5-min Rain = 0
KLA1 191643Z 12009KT 17/08 A3001 RMK A01 T01740081  RH  054%=      5-min Rain = 0
KLA1 191644Z 12007KT 17/08 A3001 RMK A01 T01730081  RH  054%=      5-min Rain = 0
KLA1 191645Z 13007KT 17/08 A3001 RMK A01 T01730081  RH  055%=      5-min Rain = 0
KLA1 191646Z 13006KT 17/08 A3001 RMK A01 T01740082  RH  055%=      5-min Rain = 0
KLA1 191647Z 12006KT 18/08 A3001 RMK A01 T01760082  RH  054%=      5-min Rain = 0
KLA1 191648Z 12007KT 18/08 A3001 RMK A01 T01780083  RH  054%=      5-min Rain = 0
KLA1 191649Z 12008KT 18/08 A3001 RMK A01 T01790082  RH  053%=      5-min Rain = 0
KLA1 191650Z 13006KT 18/08 A3001 RMK A01 T01790081  RH  053%=      5-min Rain = 0
KLA1 191651Z 13005KT 18/08 A3001 RMK A01 T01780082  RH  053%=      5-min Rain = 0
KLA1 191652Z 13008KT 18/08 A30 RMK A01 T01790082  RH  053%=      5-min Rain = 0
KLA1 191653Z 13006KT 18/08 A30 RMK A01 T01790081  RH  052%=      5-min Rain = 0
KLA1 191654Z 14006KT 18/08 A30 RMK A01 T01780082  RH  053%=      5-min Rain = 0
KLA1 191655Z 12008KT 18/08 A30 RMK A01 T01790082  RH  053%=      5-min Rain = 0
KLA1 191656Z 12006KT 18/08 A30 RMK A01 T01800081  RH  052%=      5-min Rain = 0
KLA1 191657Z 14006KT 18/08 A30 RMK A01 T01800082  RH  053%=      5-min Rain = 0
KLA1 191658Z 14006KT 18/08 A30 RMK A01 T01820083  RH  052%=      5-min Rain = 0
KLA1 191659Z 12007KT 18/08 A30 RMK A01 T01840083  RH  052%=      5-min Rain = 0
KLA1 191700Z 11008KT 18/08 A30 RMK A01 T01840082  RH  051%=      5-min Rain = 0
KLA1 191701Z 12006KT 18/08 A30 RMK A01 T01830082  RH  052%=      5-min Rain = 0
KLA1 191702Z 12005KT 18/08 A30 RMK A01 T01840084  RH  052%=      5-min Rain = 0
KLA1 191703Z 12007KT 19/08 A30 RMK A01 T01870083  RH  051%=      5-min Rain = 0
KLA1 191704Z 11007KT 19/08 A30 RMK A01 T01860082  RH  051%=      5-min Rain = 0
KLA1 191705Z 12008KT 19/08 A30 RMK A01 T01850082  RH  051%=      5-min Rain = 0
KLA1 191706Z 12007KT 19/08 A30 RMK A01 T01850082  RH  051%=      5-min Rain = 0
KLA1 191707Z 12005KT 19/08 A30 RMK A01 T01860083  RH  051%=      5-min Rain = 0
KLA1 191708Z 13009KT 19/08 A30 RMK A01 T01880083  RH  051%=      5-min Rain = 0
KLA1 191709Z 14006KT 19/08 A30 RMK A01 T01880083  RH  050%=      5-min Rain = 0
KLA1 191710Z 10007KT 19/08 A30 RMK A01 T01880083  RH  050%=      5-min Rain = 0
KLA1 191711Z 12008KT 19/08 A30 RMK A01 T01890083  RH  050%=      5-min Rain = 0
KLA1 191712Z 14006KT 19/08 A30 RMK A01 T01900082  RH  050%=      5-min Rain = 0
KLA1 191713Z 12005KT 19/08 A30 RMK A01 T01890082  RH  050%=      5-min Rain = 0
KLA1 191714Z 13007KT 19/08 A30 RMK A01 T01890083  RH  050%=      5-min Rain = 0
KLA1 191715Z 14008KT 19/08 A30 RMK A01 T01890082  RH  050%=      5-min Rain = 0
KLA1 191716Z 13006KT 19/08 A30 RMK A01 T01900083  RH  050%=      5-min Rain = 0
KLA1 191717Z 13006KT 19/08 A30 RMK A01 T01910083  RH  049%=      5-min Rain = 0
KLA1 191718Z 13007KT 19/08 A30 RMK A01 T01910082  RH  049%=      5-min Rain = 0
KLA1 191719Z 14005KT 19/08 A2999 RMK A01 T01890081  RH  049%=      5-min Rain = 0
KLA1 191720Z 11003KT 19/08 A2999 RMK A01 T01880082  RH  050%=      5-min Rain = 0
KLA1 191721Z 14008KT 19/08 A2999 RMK A01 T01910084  RH  050%=      5-min Rain = 0
KLA1 191722Z 15009KT 19/08 A2999 RMK A01 T01930082  RH  049%=      5-min Rain = 0
KLA1 191723Z 15008KT 19/08 A2999 RMK A01 T01930082  RH  049%=      5-min Rain = 0
KLA1 191724Z 15007KT 19/08 A2999 RMK A01 T01920083  RH  049%=      5-min Rain = 0
KLA1 191725Z 13008KT 19/08 A2999 RMK A01 T01930083  RH  049%=      5-min Rain = 0
KLA1 191726Z 12007KT 19/08 A2999 RMK A01 T01940083  RH  048%=      5-min Rain = 0
KLA1 191727Z 12008KT 20/08 A2999 RMK A01 T01950082  RH  048%=      5-min Rain = 0
KLA1 191728Z 13007KT 20/08 A2999 RMK A01 T01960083  RH  048%=      5-min Rain = 0
KLA1 191729Z 14007KT 20/08 A2999 RMK A01 T01970083  RH  048%=      5-min Rain = 0
KLA1 191730Z 13007KT 20/08 A2999 RMK A01 T01960082  RH  048%=      5-min Rain = 0
KLA1 191731Z 14008KT 20/08 A2999 RMK A01 T01950083  RH  048%=      5-min Rain = 0
KLA1 191732Z 13008KT 20/08 A2999 RMK A01 T01960083  RH  048%=      5-min Rain = 0
KLA1 191733Z 14007KT 20/08 A2998 RMK A01 T01970083  RH  048%=      5-min Rain = 0
KLA1 191734Z 15006KT 20/08 A2998 RMK A01 T01960083  RH  048%=      5-min Rain = 0
KLA1 191735Z 15005KT 20/08 A2998 RMK A01 T01960083  RH  048%=      5-min Rain = 0
KLA1 191736Z 12005KT 20/08 A2998 RMK A01 T01970083  RH  048%=      5-min Rain = 0
KLA1 191737Z 11006KT 20/08 A2998 RMK A01 T01980083  RH  047%=      5-min Rain = 0
KLA1 191738Z 11006KT 20/08 A2998 RMK A01 T01980082  RH  047%=      5-min Rain = 0
KLA1 191739Z 12007KT 20/08 A2998 RMK A01 T01950082  RH  048%=      5-min Rain = 0
KLA1 191740Z 12007KT 20/08 A2998 RMK A01 T01950082  RH  048%=      5-min Rain = 0
KLA1 191741Z 12005KT 19/08 A2998 RMK A01 T01940082  RH  048%=      5-min Rain = 0
KLA1 191742Z 11007KT 19/08 A2998 RMK A01 T01940082  RH  048%=      5-min Rain = 0
KLA1 191743Z 14008KT 20/08 A2998 RMK A01 T01960083  RH  048%=      5-min Rain = 0
KLA1 191744Z 14007KT 20/08 A2998 RMK A01 T01980082  RH  047%=      5-min Rain = 0
KLA1 191745Z 14008KT 20/08 A2998 RMK A01 T01980082  RH  047%=      5-min Rain = 0
KLA1 191746Z 15008KT 20/08 A2998 RMK A01 T01980082  RH  047%=      5-min Rain = 0
KLA1 191747Z 14007KT 20/08 A2998 RMK A01 T01980082  RH  047%=      5-min Rain = 0
KLA1 191748Z 14007KT 20/08 A2998 RMK A01 T01980082  RH  047%=      5-min Rain = 0
KLA1 191749Z 13006KT 20/08 A2998 RMK A01 T01980081  RH  047%=      5-min Rain = 0
KLA1 191750Z 15005KT 20/08 A2998 RMK A01 T01980082  RH  047%=      5-min Rain = 0
KLA1 191751Z 14005KT 20/08 A2998 RMK A01 T02000083  RH  047%=      5-min Rain = 0
KLA1 191752Z 13007KT 20/08 A2998 RMK A01 T02030083  RH  046%=      5-min Rain = 0
KLA1 191753Z 13008KT 20/08 A2998 RMK A01 T02040082  RH  045%=      5-min Rain = 0
KLA1 191754Z 13007KT 20/08 A2998 RMK A01 T02030082  RH  045%=      5-min Rain = 0
KLA1 191755Z 11007KT 20/08 A2998 RMK A01 T02020081  RH  046%=      5-min Rain = 0
KLA1 191756Z 11006KT 20/08 A2998 RMK A01 T02010081  RH  046%=      5-min Rain = 0
KLA1 191757Z 11006KT 20/08 A2998 RMK A01 T02020081  RH  046%=      5-min Rain = 0
KLA1 191758Z 12006KT 20/08 A2998 RMK A01 T02020082  RH  046%=      5-min Rain = 0
KLA1 191759Z 13008KT 20/08 A2998 RMK A01 T02040082  RH  045%=      5-min Rain = 0
KLA1 191800Z 13006KT 21/08 A2998 RMK A01 T02050082  RH  045%=      5-min Rain = 0
KLA1 191801Z 12006KT 21/08 A2998 RMK A01 T02070082  RH  045%=      5-min Rain = 0
KLA1 191802Z 11007KT 21/08 A2997 RMK A01 T02090083  RH  044%=      5-min Rain = 0
KLA1 191803Z 12010KT 21/08 A2997 RMK A01 T02100083  RH  044%=      5-min Rain = 0
KLA1 191804Z 13010KT 21/08 A2997 RMK A01 T02110083  RH  044%=      5-min Rain = 0
KLA1 191805Z 14005KT 21/08 A2997 RMK A01 T02120081  RH  043%=      5-min Rain = 0
KLA1 191806Z 14006KT 21/08 A2997 RMK A01 T02120083  RH  043%=      5-min Rain = 0
KLA1 191807Z 14007KT 21/08 A2997 RMK A01 T02130083  RH  043%=      5-min Rain = 0
KLA1 191808Z 14008KT 22/08 A2997 RMK A01 T02150082  RH  042%=      5-min Rain = 0
KLA1 191809Z 17006KT 22/08 A2997 RMK A01 T02180083  RH  042%=      5-min Rain = 0
KLA1 191810Z 15006KT 22/08 A2997 RMK A01 T02190083  RH  041%=      5-min Rain = 0
KLA1 191811Z 13009KT 22/08 A2997 RMK A01 T02200084  RH  042%=      5-min Rain = 0
KLA1 191812Z 13006KT 22/08 A2997 RMK A01 T02210082  RH  041%=      5-min Rain = 0
KLA1 191813Z 15007KT 22/08 A2997 RMK A01 T02220083  RH  041%=      5-min Rain = 0
KLA1 191814Z 17007KT 22/08 A2997 RMK A01 T02240081  RH  040%=      5-min Rain = 0
KLA1 191815Z 16005KT 22/08 A2996 RMK A01 T02230081  RH  040%=      5-min Rain = 0
KLA1 191816Z 14008KT 22/08 A2996 RMK A01 T02220082  RH  041%=      5-min Rain = 0
KLA1 191817Z 13007KT 22/08 A2996 RMK A01 T02220080  RH  040%=      5-min Rain = 0
KLA1 191818Z 16007KT 23/08 A2996 RMK A01 T02250081  RH  040%=      5-min Rain = 0
KLA1 191819Z 14008KT 23/08 A2996 RMK A01 T02290082  RH  039%=      5-min Rain = 0
KLA1 191820Z 15007KT 23/08 A2996 RMK A01 T02300080  RH  038%=      5-min Rain = 0
KLA1 191821Z 14010KT 23/08 A2996 RMK A01 T02310081  RH  038%=      5-min Rain = 0
KLA1 191822Z 14009KT 23/08 A2996 RMK A01 T02320079  RH  037%=      5-min Rain = 0
KLA1 191823Z 16007KT 23/08 A2996 RMK A01 T02320077  RH  037%=      5-min Rain = 0
KLA1 191824Z 14006KT 23/08 A2996 RMK A01 T02290077  RH  038%=      5-min Rain = 0
KLA1 191825Z 15008G13KT 23/08 A2996 RMK A01 T02290079  RH  038%=      5-min Rain = 0
KLA1 191826Z 16008KT 23/08 A2996 RMK A01 T02310078  RH  037%=      5-min Rain = 0
KLA1 191827Z 17009KT 23/08 A2996 RMK A01 T02310078  RH  037%=      5-min Rain = 0
KLA1 191828Z 18009KT 23/08 A2996 RMK A01 T02310078  RH  037%=      5-min Rain = 0
KLA1 191829Z 17009KT 23/08 A2995 RMK A01 T02310078  RH  037%=      5-min Rain = 0
KLA1 191830Z 17008KT 23/08 A2995 RMK A01 T02280078  RH  038%=      5-min Rain = 0
KLA1 191831Z 18010KT 23/08 A2995 RMK A01 T02270078  RH  038%=      5-min Rain = 0
KLA1 191832Z 19008KT 23/08 A2995 RMK A01 T02280078  RH  038%=      5-min Rain = 0
KLA1 191833Z 18007KT 23/08 A2995 RMK A01 T02280078  RH  038%=      5-min Rain = 0
KLA1 191834Z 18007KT 23/08 A2995 RMK A01 T02280078  RH  038%=      5-min Rain = 0
KLA1 191835Z 16008KT 23/08 A2995 RMK A01 T02280078  RH  038%=      5-min Rain = 0
KLA1 191836Z 17007KT 23/08 A2995 RMK A01 T02290079  RH  038%=      5-min Rain = 0
KLA1 191837Z 14006G11KT 23/08 A2995 RMK A01 T02320080  RH  038%=      5-min Rain = 0
KLA1 191838Z 12008KT 23/08 A2995 RMK A01 T02340079  RH  037%=      5-min Rain = 0
KLA1 191839Z 14011KT 23/08 A2995 RMK A01 T02330078  RH  037%=      5-min Rain = 0
KLA1 191840Z 13009KT 23/08 A2995 RMK A01 T02330079  RH  037%=      5-min Rain = 0
KLA1 191841Z 12009KT 23/08 A2994 RMK A01 T02340078  RH  037%=      5-min Rain = 0
KLA1 191842Z 14009KT 23/08 A2994 RMK A01 T02330079  RH  037%=      5-min Rain = 0
KLA1 191843Z 14011KT 23/08 A2994 RMK A01 T02330078  RH  037%=      5-min Rain = 0
KLA1 191844Z 15012KT 23/08 A2994 RMK A01 T02330078  RH  037%=      5-min Rain = 0
KLA1 191845Z 15010KT 23/08 A2994 RMK A01 T02330078  RH  037%=      5-min Rain = 0
KLA1 191846Z 14010KT 23/08 A2994 RMK A01 T02330079  RH  037%=      5-min Rain = 0
KLA1 191847Z 15011KT 23/08 A2994 RMK A01 T02340079  RH  037%=      5-min Rain = 0
KLA1 191848Z 15010KT 23/08 A2994 RMK A01 T02340079  RH  037%=      5-min Rain = 0
KLA1 191849Z 15012KT 23/08 A2994 RMK A01 T02330079  RH  037%=      5-min Rain = 0
KLA1 191850Z 15009KT 23/08 A2994 RMK A01 T02330079  RH  037%=      5-min Rain = 0
KLA1 191851Z 16009KT 23/08 A2994 RMK A01 T02340081  RH  038%=      5-min Rain = 0
KLA1 191852Z 16012KT 24/08 A2993 RMK A01 T02360080  RH  037%=      5-min Rain = 0
KLA1 191853Z 15010KT 24/08 A2993 RMK A01 T02360080  RH  037%=      5-min Rain = 0
KLA1 191854Z 15010KT 24/08 A2994 RMK A01 T02360081  RH  037%=      5-min Rain = 0
KLA1 191855Z 16011KT 24/08 A2994 RMK A01 T02380080  RH  037%=      5-min Rain = 0
KLA1 191856Z 15009KT 24/08 A2994 RMK A01 T02370080  RH  037%=      5-min Rain = 0
KLA1 191857Z 15009KT 24/08 A2993 RMK A01 T02370080  RH  037%=      5-min Rain = 0
KLA1 191858Z 16007KT 24/08 A2993 RMK A01 T02370080  RH  037%=      5-min Rain = 0
KLA1 191859Z 16006KT 24/08 A2993 RMK A01 T02360080  RH  037%=      5-min Rain = 0
KLA1 191900Z 16007KT 24/08 A2993 RMK A01 T02360081  RH  037%=      5-min Rain = 0
KLA1 191901Z 17010KT 24/08 A2993 RMK A01 T02370081  RH  037%=      5-min Rain = 0
KLA1 191902Z 15010KT 24/08 A2993 RMK A01 T02390081  RH  036%=      5-min Rain = 0
KLA1 191903Z 15007KT 24/08 A2993 RMK A01 T02400081  RH  036%=      5-min Rain = 0
KLA1 191904Z 15009KT 24/08 A2993 RMK A01 T02400081  RH  036%=      5-min Rain = 0
KLA1 191905Z 14009KT 24/08 A2993 RMK A01 T02390080  RH  036%=      5-min Rain = 0
KLA1 191906Z 15010KT 24/08 A2993 RMK A01 T02380080  RH  036%=      5-min Rain = 0
KLA1 191907Z 16011KT 24/08 A2993 RMK A01 T02390080  RH  036%=      5-min Rain = 0
KLA1 191908Z 16009KT 24/08 A2993 RMK A01 T02390080  RH  036%=      5-min Rain = 0
KLA1 191909Z 16009KT 24/08 A2993 RMK A01 T02380080  RH  036%=      5-min Rain = 0
KLA1 191910Z 16010KT 24/08 A2992 RMK A01 T02380081  RH  037%=      5-min Rain = 0
KLA1 191911Z 17010KT 24/08 A2992 RMK A01 T02390081  RH  036%=      5-min Rain = 0
KLA1 191912Z 16011KT 24/08 A2992 RMK A01 T02400081  RH  036%=      5-min Rain = 0
KLA1 191913Z 16010KT 24/08 A2992 RMK A01 T02410081  RH  036%=      5-min Rain = 0
KLA1 191914Z 17010KT 24/08 A2992 RMK A01 T02410080  RH  036%=      5-min Rain = 0
KLA1 191915Z 15008KT 24/08 A2992 RMK A01 T02420081  RH  036%=      5-min Rain = 0
KLA1 191916Z 16009KT 24/08 A2992 RMK A01 T02410081  RH  036%=      5-min Rain = 0
KLA1 191917Z 17009KT 24/08 A2992 RMK A01 T02420080  RH  036%=      5-min Rain = 0
KLA1 191918Z 15008KT 24/08 A2992 RMK A01 T02420081  RH  036%=      5-min Rain = 0
KLA1 191919Z 13009KT 24/08 A2992 RMK A01 T02430081  RH  035%=      5-min Rain = 0
KLA1 191920Z 14008KT 24/08 A2992 RMK A01 T02440081  RH  035%=      5-min Rain = 0
KLA1 191921Z 14007KT 24/08 A2992 RMK A01 T02440081  RH  035%=      5-min Rain = 0
KLA1 191922Z 15007KT 24/08 A2992 RMK A01 T02430081  RH  035%=      5-min Rain = 0
KLA1 191923Z 16009KT 25/08 A2992 RMK A01 T02460082  RH  035%=      5-min Rain = 0
KLA1 191924Z 16008KT 25/08 A2992 RMK A01 T02460081  RH  035%=      5-min Rain = 0
KLA1 191925Z 13009G14KT 25/08 A2992 RMK A01 T02450081  RH  035%=      5-min Rain = 0
KLA1 191926Z 13013KT 24/08 A2992 RMK A01 T02440081  RH  035%=      5-min Rain = 0
KLA1 191927Z 14009KT 24/08 A2991 RMK A01 T02430080  RH  035%=      5-min Rain = 0
KLA1 191928Z 14008KT 24/08 A2991 RMK A01 T02430080  RH  035%=      5-min Rain = 0
KLA1 191929Z 13010KT 24/08 A2991 RMK A01 T02440082  RH  035%=      5-min Rain = 0
KLA1 191930Z 14011KT 25/08 A2991 RMK A01 T02480082  RH  035%=      5-min Rain = 0
KLA1 191931Z 14008KT 25/08 A2991 RMK A01 T02500081  RH  034%=      5-min Rain = 0
KLA1 191932Z 14012KT 25/08 A2991 RMK A01 T02520081  RH  034%=      5-min Rain = 0
KLA1 191933Z 13012KT 25/08 A2991 RMK A01 T02510080  RH  034%=      5-min Rain = 0
KLA1 191934Z 13010KT 25/08 A2991 RMK A01 T02490080  RH  034%=      5-min Rain = 0
KLA1 191935Z 13010KT 25/08 A2991 RMK A01 T02470080  RH  034%=      5-min Rain = 0
KLA1 191936Z 14010KT 25/08 A2991 RMK A01 T02470080  RH  034%=      5-min Rain = 0
KLA1 191937Z 14007G12KT 25/08 A2991 RMK A01 T02490081  RH  034%=      5-min Rain = 0
KLA1 191938Z 15009KT 25/08 A2991 RMK A01 T02510081  RH  034%=      5-min Rain = 0
KLA1 191939Z 14009KT 25/08 A2991 RMK A01 T02520081  RH  034%=      5-min Rain = 0
KLA1 191940Z 13011KT 25/08 A2991 RMK A01 T02510082  RH  034%=      5-min Rain = 0
KLA1 191941Z 15010KT 25/08 A2991 RMK A01 T02510082  RH  034%=      5-min Rain = 0
KLA1 191942Z 16012KT 25/08 A2991 RMK A01 T02520081  RH  034%=      5-min Rain = 0
KLA1 191943Z 15008KT 25/08 A299 RMK A01 T02500080  RH  034%=      5-min Rain = 0
KLA1 191944Z 13011KT 25/08 A299 RMK A01 T02490081  RH  034%=      5-min Rain = 0
KLA1 191945Z 14013KT 25/08 A299 RMK A01 T02490081  RH  034%=      5-min Rain = 0
KLA1 191946Z 13013KT 25/08 A299 RMK A01 T02490081  RH  034%=      5-min Rain = 0
KLA1 191947Z 14010KT 25/08 A299 RMK A01 T02470080  RH  035%=      5-min Rain = 0
KLA1 191948Z 15010KT 25/08 A299 RMK A01 T02460081  RH  035%=      5-min Rain = 0
KLA1 191949Z 17013KT 25/08 A299 RMK A01 T02460081  RH  035%=      5-min Rain = 0
KLA1 191950Z 17012KT 25/08 A299 RMK A01 T02460081  RH  035%=      5-min Rain = 0
KLA1 191951Z 15010KT 25/08 A299 RMK A01 T02460082  RH  035%=      5-min Rain = 0
KLA1 191952Z 15012KT 25/08 A299 RMK A01 T02470082  RH  035%=      5-min Rain = 0
KLA1 191953Z 14011KT 25/08 A299 RMK A01 T02490084  RH  035%=      5-min Rain = 0
KLA1 191954Z 13008KT 25/09 A299 RMK A01 T02490086  RH  035%=      5-min Rain = 0
KLA1 191955Z 14006G11KT 25/09 A299 RMK A01 T02500086  RH  035%=      5-min Rain = 0
KLA1 191956Z 15007KT 25/09 A299 RMK A01 T02530088  RH  035%=      5-min Rain = 0
KLA1 191957Z 14008KT 26/09 A299 RMK A01 T02550087  RH  035%=      5-min Rain = 0
KLA1 191958Z 15010G16KT 26/09 A299 RMK A01 T02550088  RH  035%=      5-min Rain = 0
KLA1 191959Z 15012KT 26/09 A299 RMK A01 T02550085  RH  034%=      5-min Rain = 0
KLA1 192000Z 14009KT 25/08 A299 RMK A01 T02520084  RH  034%=      5-min Rain = 0
KLA1 192001Z 17010KT 25/08 A299 RMK A01 T02510083  RH  034%=      5-min Rain = 0
KLA1 192002Z 16012KT 25/08 A299 RMK A01 T02510084  RH  035%=      5-min Rain = 0
KLA1 192003Z 15009KT 25/08 A299 RMK A01 T02500084  RH  035%=      5-min Rain = 0
KLA1 192004Z 15008KT 25/09 A299 RMK A01 T02500086  RH  035%=      5-min Rain = 0
KLA1 192005Z 14009KT 25/09 A299 RMK A01 T02510088  RH  035%=      5-min Rain = 0
KLA1 192006Z 14013KT 25/09 A299 RMK A01 T02520088  RH  035%=      5-min Rain = 0
KLA1 192007Z 14010KT 25/09 A299 RMK A01 T02500087  RH  035%=      5-min Rain = 0
KLA1 192008Z 17010G15KT 25/09 A299 RMK A01 T02480087  RH  036%=      5-min Rain = 0
KLA1 192009Z 17011KT 25/09 A299 RMK A01 T02480086  RH  036%=      5-min Rain = 0
KLA1 192010Z 17008KT 25/09 A2989 RMK A01 T02470086  RH  036%=      5-min Rain = 0
KLA1 192011Z 15008KT 25/09 A2989 RMK A01 T02460086  RH  036%=      5-min Rain = 0
KLA1 192012Z 17010KT 25/09 A2989 RMK A01 T02470086  RH  036%=      5-min Rain = 0
KLA1 192013Z 15009KT 25/09 A2989 RMK A01 T02490086  RH  035%=      5-min Rain = 0
KLA1 192014Z 13009KT 25/09 A2989 RMK A01 T02510088  RH  036%=      5-min Rain = 0
KLA1 192015Z 12011KT 25/09 A2989 RMK A01 T02510088  RH  035%=      5-min Rain = 0
KLA1 192016Z 13012KT 25/09 A2989 RMK A01 T02500089  RH  036%=      5-min Rain = 0
KLA1 192017Z 15009KT 25/09 A2989 RMK A01 T02490089  RH  036%=      5-min Rain = 0
KLA1 192018Z 16009KT 25/09 A2989 RMK A01 T02500087  RH  036%=      5-min Rain = 0
KLA1 192019Z 15008KT 25/09 A2989 RMK A01 T02520090  RH  036%=      5-min Rain = 0
KLA1 192020Z 14009KT 25/09 A2989 RMK A01 T02540090  RH  035%=      5-min Rain = 0
KLA1 192021Z 15008KT 25/09 A2989 RMK A01 T02540089  RH  035%=      5-min Rain = 0
KLA1 192022Z 15008KT 25/09 A2989 RMK A01 T02530090  RH  036%=      5-min Rain = 0
KLA1 192023Z 14010KT 25/09 A2989 RMK A01 T02540089  RH  035%=      5-min Rain = 0
KLA1 192024Z 13012G17KT 25/09 A2989 RMK A01 T02540089  RH  035%=      5-min Rain = 0
KLA1 192025Z 14008KT 25/09 A2988 RMK A01 T02530088  RH  035%=      5-min Rain = 0
KLA1 192026Z 14009KT 25/09 A2988 RMK A01 T02540089  RH  035%=      5-min Rain = 0
KLA1 192027Z 15014KT 26/09 A2988 RMK A01 T02560088  RH  034%=      5-min Rain = 0
KLA1 192028Z 16014KT 26/09 A2988 RMK A01 T02550086  RH  034%=      5-min Rain = 0
KLA1 192029Z 16011KT 25/09 A2988 RMK A01 T02510086  RH  035%=      5-min Rain = 0
KLA1 192030Z 16014KT 25/09 A2988 RMK A01 T02510085  RH  035%=      5-min Rain = 0
KLA1 192031Z 15012KT 25/09 A2988 RMK A01 T02520085  RH  035%=      5-min Rain = 0
KLA1 192032Z 15012KT 25/09 A2988 RMK A01 T02510085  RH  035%=      5-min Rain = 0
KLA1 192033Z 15012KT 25/08 A2988 RMK A01 T02510084  RH  035%=      5-min Rain = 0
KLA1 192034Z 15009KT 25/09 A2988 RMK A01 T02510086  RH  035%=      5-min Rain = 0
KLA1 192035Z 16010KT 25/09 A2988 RMK A01 T02530087  RH  035%=      5-min Rain = 0
KLA1 192036Z 16010KT 25/09 A2988 RMK A01 T02540087  RH  035%=      5-min Rain = 0
KLA1 192037Z 16008KT 25/09 A2988 RMK A01 T02530087  RH  035%=      5-min Rain = 0
KLA1 192038Z 16010KT 25/09 A2988 RMK A01 T02530087  RH  035%=      5-min Rain = 0
KLA1 192039Z 17009KT 25/09 A2988 RMK A01 T02530086  RH  035%=      5-min Rain = 0
KLA1 192040Z 16010KT 26/09 A2988 RMK A01 T02550086  RH  034%=      5-min Rain = 0
KLA1 192041Z 16012KT 26/09 A2988 RMK A01 T02550086  RH  034%=      5-min Rain = 0
KLA1 192042Z 16013KT 26/09 A2988 RMK A01 T02560086  RH  034%=      5-min Rain = 0
KLA1 192043Z 16013KT 25/09 A2988 RMK A01 T02530086  RH  034%=      5-min Rain = 0
KLA1 192044Z 16012KT 25/09 A2988 RMK A01 T02520085  RH  035%=      5-min Rain = 0
KLA1 192045Z 15012KT 25/09 A2988 RMK A01 T02520085  RH  034%=      5-min Rain = 0
KLA1 192046Z 15011KT 25/08 A2987 RMK A01 T02510084  RH  035%=      5-min Rain = 0
KLA1 192047Z 15013KT 25/09 A2987 RMK A01 T02510086  RH  035%=      5-min Rain = 0
KLA1 192048Z 15012KT 25/09 A2987 RMK A01 T02510086  RH  035%=      5-min Rain = 0
KLA1 192049Z 16011KT 25/09 A2987 RMK A01 T02510087  RH  035%=      5-min Rain = 0
KLA1 192050Z 15010KT 25/09 A2987 RMK A01 T02530088  RH  035%=      5-min Rain = 0
KLA1 192051Z 16011KT 25/09 A2987 RMK A01 T02540088  RH  035%=      5-min Rain = 0
KLA1 192052Z 17012KT 25/09 A2987 RMK A01 T02540086  RH  034%=      5-min Rain = 0
KLA1 192053Z 16010KT 25/09 A2987 RMK A01 T02530086  RH  035%=      5-min Rain = 0
KLA1 192054Z 16011KT 25/09 A2987 RMK A01 T02540087  RH  035%=      5-min Rain = 0
KLA1 192055Z 17010KT 25/09 A2987 RMK A01 T02540087  RH  035%=      5-min Rain = 0
KLA1 192056Z 16011KT 25/09 A2987 RMK A01 T02540088  RH  035%=      5-min Rain = 0
KLA1 192057Z 16010KT 26/09 A2987 RMK A01 T02550087  RH  035%=      5-min Rain = 0
KLA1 192058Z 16008KT 26/09 A2987 RMK A01 T02550088  RH  035%=      5-min Rain = 0
KLA1 192059Z 14009KT 26/09 A2987 RMK A01 T02570088  RH  034%=      5-min Rain = 0
KLA1 192100Z 14007KT 26/09 A2987 RMK A01 T02590089  RH  034%=      5-min Rain = 0
KLA1 192101Z 14009KT 26/09 A2987 RMK A01 T02600088  RH  034%=      5-min Rain = 0
KLA1 192102Z 14012KT 26/09 A2987 RMK A01 T02610088  RH  034%=      5-min Rain = 0
KLA1 192103Z 15012KT 26/09 A2987 RMK A01 T02590087  RH  034%=      5-min Rain = 0
KLA1 192104Z 15010KT 26/09 A2987 RMK A01 T02570088  RH  034%=      5-min Rain = 0
KLA1 192105Z 15011KT 26/09 A2987 RMK A01 T02570089  RH  034%=      5-min Rain = 0
KLA1 192106Z 14012KT 26/09 A2987 RMK A01 T02580089  RH  034%=      5-min Rain = 0
KLA1 192107Z 15011KT 26/09 A2987 RMK A01 T02570090  RH  035%=      5-min Rain = 0
KLA1 192108Z 16012KT 26/09 A2987 RMK A01 T02570091  RH  035%=      5-min Rain = 0
KLA1 192109Z 16011KT 26/09 A2987 RMK A01 T02560090  RH  035%=      5-min Rain = 0
KLA1 192110Z 16009KT 26/09 A2987 RMK A01 T02560090  RH  035%=      5-min Rain = 0
KLA1 192111Z 15010G15KT 26/09 A2987 RMK A01 T02580092  RH  035%=      5-min Rain = 0
KLA1 192112Z 13010KT 26/09 A2987 RMK A01 T02590091  RH  035%=      5-min Rain = 0
KLA1 192113Z 12011KT 26/09 A2987 RMK A01 T02580091  RH  035%=      5-min Rain = 0
KLA1 192114Z 12011KT 26/09 A2987 RMK A01 T02570091  RH  035%=      5-min Rain = 0
KLA1 192115Z 14009KT 26/09 A2987 RMK A01 T02570091  RH  035%=      5-min Rain = 0
KLA1 192116Z 14009KT 26/09 A2987 RMK A01 T02580090  RH  035%=      5-min Rain = 0
KLA1 192117Z 13011KT 26/09 A2986 RMK A01 T02590090  RH  034%=      5-min Rain = 0
KLA1 192118Z 14012KT 26/09 A2986 RMK A01 T02590090  RH  034%=      5-min Rain = 0
KLA1 192119Z 15009KT 26/09 A2986 RMK A01 T02590090  RH  034%=      5-min Rain = 0
KLA1 192120Z 15012KT 26/09 A2986 RMK A01 T02600090  RH  034%=      5-min Rain = 0
KLA1 192121Z 16009KT 26/09 A2986 RMK A01 T02610090  RH  034%=      5-min Rain = 0
KLA1 192122Z 15013KT 26/09 A2986 RMK A01 T02610089  RH  034%=      5-min Rain = 0
KLA1 192123Z 16012KT 26/09 A2986 RMK A01 T02610088  RH  033%=      5-min Rain = 0
KLA1 192124Z 15014KT 26/09 A2986 RMK A01 T02610087  RH  033%=      5-min Rain = 0
KLA1 192125Z 16010KT 26/09 A2986 RMK A01 T02600088  RH  034%=      5-min Rain = 0
KLA1 192126Z 16012KT 26/09 A2986 RMK A01 T02600088  RH  034%=      5-min Rain = 0
KLA1 192127Z 16012KT 26/09 A2986 RMK A01 T02610087  RH  033%=      5-min Rain = 0
KLA1 192128Z 16012G17KT 26/09 A2986 RMK A01 T02600087  RH  033%=      5-min Rain = 0
KLA1 192129Z 16014KT 26/09 A2986 RMK A01 T02600086  RH  033%=      5-min Rain = 0
KLA1 192130Z 15013KT 26/09 A2986 RMK A01 T02590086  RH  033%=      5-min Rain = 0
KLA1 192131Z 15011KT 26/09 A2986 RMK A01 T02590088  RH  034%=      5-min Rain = 0
KLA1 192132Z 15011G16KT 26/09 A2986 RMK A01 T02590088  RH  034%=      5-min Rain = 0
KLA1 192133Z 15011KT 26/09 A2986 RMK A01 T02600088  RH  034%=      5-min Rain = 0
KLA1 192134Z 16011KT 26/09 A2986 RMK A01 T02600088  RH  034%=      5-min Rain = 0
KLA1 192135Z 16010KT 26/09 A2986 RMK A01 T02600091  RH  034%=      5-min Rain = 0
KLA1 192136Z 15009KT 26/09 A2986 RMK A01 T02600092  RH  035%=      5-min Rain = 0
KLA1 192137Z 14011KT 26/09 A2986 RMK A01 T02590092  RH  035%=      5-min Rain = 0
KLA1 192138Z 15012KT 26/09 A2986 RMK A01 T02590092  RH  035%=      5-min Rain = 0
KLA1 192139Z 15011KT 26/09 A2986 RMK A01 T02590092  RH  035%=      5-min Rain = 0
KLA1 192140Z 16012KT 26/09 A2986 RMK A01 T02590092  RH  035%=      5-min Rain = 0
KLA1 192141Z 16012KT 26/09 A2986 RMK A01 T02590094  RH  035%=      5-min Rain = 0
KLA1 192142Z 14008G13KT 26/09 A2986 RMK A01 T02570094  RH  036%=      5-min Rain = 0
KLA1 192143Z 14009KT 26/09 A2986 RMK A01 T02570093  RH  035%=      5-min Rain = 0
KLA1 192144Z 14012KT 26/09 A2986 RMK A01 T02580093  RH  035%=      5-min Rain = 0
KLA1 192145Z 15010KT 26/09 A2985 RMK A01 T02570093  RH  035%=      5-min Rain = 0
KLA1 192146Z 14011KT 26/09 A2986 RMK A01 T02560093  RH  036%=      5-min Rain = 0
KLA1 192147Z 14013KT 26/09 A2985 RMK A01 T02550092  RH  035%=      5-min Rain = 0
KLA1 192148Z 13010KT 25/09 A2986 RMK A01 T02540091  RH  036%=      5-min Rain = 0
KLA1 192149Z 14011KT 25/09 A2986 RMK A01 T02540089  RH  035%=      5-min Rain = 0
KLA1 192150Z 15011G16KT 25/09 A2986 RMK A01 T02540087  RH  035%=      5-min Rain = 0
KLA1 192151Z 15011KT 25/09 A2986 RMK A01 T02530088  RH  035%=      5-min Rain = 0
KLA1 192152Z 14011KT 25/09 A2986 RMK A01 T02510088  RH  035%=      5-min Rain = 0
KLA1 192153Z 14011KT 25/09 A2986 RMK A01 T02500087  RH  036%=      5-min Rain = 0
KLA1 192154Z 14010KT 25/09 A2986 RMK A01 T02500087  RH  036%=      5-min Rain = 0
KLA1 192155Z 16007KT 25/09 A2986 RMK A01 T02490088  RH  036%=      5-min Rain = 0
KLA1 192156Z 16009G14KT 25/09 A2986 RMK A01 T02500090  RH  036%=      5-min Rain = 0
KLA1 192157Z 16009KT 25/09 A2986 RMK A01 T02490092  RH  037%=      5-min Rain = 0
KLA1 192158Z 15006KT 25/09 A2986 RMK A01 T02480093  RH  037%=      5-min Rain = 0
KLA1 192159Z 16007KT 25/09 A2986 RMK A01 T02480093  RH  037%=      5-min Rain = 0
KLA1 192200Z 15005KT 25/09 A2986 RMK A01 T02480093  RH  037%=      5-min Rain = 0
KLA1 192201Z 14007KT 25/09 A2986 RMK A01 T02480093  RH  037%=      5-min Rain = 0
KLA1 192202Z 15008KT 25/09 A2986 RMK A01 T02480091  RH  037%=      5-min Rain = 0
KLA1 192203Z 15008KT 25/09 A2986 RMK A01 T02480090  RH  036%=      5-min Rain = 0
KLA1 192204Z 15010KT 25/09 A2986 RMK A01 T02490089  RH  036%=      5-min Rain = 0
KLA1 192205Z 14012KT 25/09 A2986 RMK A01 T02490088  RH  036%=      5-min Rain = 0
KLA1 192206Z 15011KT 25/09 A2985 RMK A01 T02490090  RH  036%=      5-min Rain = 0
KLA1 192207Z 15010KT 25/09 A2986 RMK A01 T02490091  RH  037%=      5-min Rain = 0
KLA1 192208Z 15010KT 25/09 A2985 RMK A01 T02490090  RH  036%=      5-min Rain = 0
KLA1 192209Z 14009KT 25/09 A2985 RMK A01 T02490090  RH  036%=      5-min Rain = 0
KLA1 192210Z 15010KT 25/09 A2985 RMK A01 T02490090  RH  036%=      5-min Rain = 0
KLA1 192211Z 15011KT 25/09 A2985 RMK A01 T02490090  RH  036%=      5-min Rain = 0
KLA1 192212Z 15011KT 25/09 A2985 RMK A01 T02490090  RH  036%=      5-min Rain = 0
KLA1 192213Z 15012KT 25/09 A2985 RMK A01 T02500091  RH  036%=      5-min Rain = 0
KLA1 192214Z 15014KT 25/09 A2985 RMK A01 T02490092  RH  037%=      5-min Rain = 0
KLA1 192215Z 15012KT 25/09 A2985 RMK A01 T02480092  RH  037%=      5-min Rain = 0
KLA1 192216Z 15011KT 25/09 A2985 RMK A01 T02480092  RH  037%=      5-min Rain = 0
KLA1 192217Z 15011KT 25/09 A2985 RMK A01 T02480091  RH  037%=      5-min Rain = 0
KLA1 192218Z 15011KT 25/09 A2985 RMK A01 T02470090  RH  037%=      5-min Rain = 0
KLA1 192219Z 15011KT 25/09 A2985 RMK A01 T02470091  RH  037%=      5-min Rain = 0
KLA1 192220Z 15011KT 25/09 A2986 RMK A01 T02470091  RH  037%=      5-min Rain = 0
KLA1 192221Z 15011KT 25/09 A2986 RMK A01 T02460091  RH  037%=      5-min Rain = 0
KLA1 192222Z 16011KT 25/09 A2986 RMK A01 T02460091  RH  037%=      5-min Rain = 0
KLA1 192223Z 15010KT 25/09 A2986 RMK A01 T02450091  RH  037%=      5-min Rain = 0
KLA1 192224Z 15009KT 25/09 A2986 RMK A01 T02450090  RH  037%=      5-min Rain = 0
KLA1 192225Z 15011KT 24/09 A2986 RMK A01 T02440090  RH  038%=      5-min Rain = 0
KLA1 192226Z 14011KT 24/09 A2985 RMK A01 T02440091  RH  038%=      5-min Rain = 0
KLA1 192227Z 14011KT 24/09 A2985 RMK A01 T02440091  RH  038%=      5-min Rain = 0
KLA1 192228Z 14011G16KT 24/09 A2986 RMK A01 T02440092  RH  038%=      5-min Rain = 0
KLA1 192229Z 15011KT 24/09 A2986 RMK A01 T02440091  RH  038%=      5-min Rain = 0
KLA1 192230Z 15010KT 24/09 A2985 RMK A01 T02430091  RH  038%=      5-min Rain = 0
KLA1 192231Z 15009KT 24/09 A2986 RMK A01 T02430091  RH  038%=      5-min Rain = 0
KLA1 192232Z 14008KT 24/09 A2986 RMK A01 T02430092  RH  038%=      5-min Rain = 0
KLA1 192233Z 15008G14KT 24/09 A2986 RMK A01 T02430091  RH  038%=      5-min Rain = 0
KLA1 192234Z 15011KT 24/09 A2986 RMK A01 T02430091  RH  038%=      5-min Rain = 0
KLA1 192235Z 15009KT 24/09 A2986 RMK A01 T02430091  RH  038%=      5-min Rain = 0
KLA1 192236Z 15009KT 24/09 A2986 RMK A01 T02430091  RH  038%=      5-min Rain = 0
KLA1 192237Z 15008KT 24/09 A2986 RMK A01 T02430092  RH  038%=      5-min Rain = 0
KLA1 192238Z 16008KT 24/09 A2986 RMK A01 T02420092  RH  038%=      5-min Rain = 0
KLA1 192239Z 15008KT 24/09 A2986 RMK A01 T02420092  RH  038%=      5-min Rain = 0
KLA1 192240Z 16007KT 24/09 A2986 RMK A01 T02420092  RH  038%=      5-min Rain = 0
KLA1 192241Z 15009KT 24/09 A2986 RMK A01 T02420092  RH  038%=      5-min Rain = 0
KLA1 192242Z 16010G16KT 24/09 A2986 RMK A01 T02420091  RH  038%=      5-min Rain = 0
KLA1 192243Z 16011G16KT 24/09 A2986 RMK A01 T02420091  RH  038%=      5-min Rain = 0
KLA1 192244Z 16010KT 24/09 A2986 RMK A01 T02410090  RH  038%=      5-min Rain = 0
KLA1 192245Z 15007KT 24/09 A2986 RMK A01 T02410090  RH  038%=      5-min Rain = 0
KLA1 192246Z 15010KT 24/09 A2986 RMK A01 T02410091  RH  039%=      5-min Rain = 0
KLA1 192247Z 15010G16KT 24/09 A2986 RMK A01 T02400091  RH  039%=      5-min Rain = 0
KLA1 192248Z 15010KT 24/09 A2986 RMK A01 T02400092  RH  039%=      5-min Rain = 0
KLA1 192249Z 15009KT 24/09 A2986 RMK A01 T02400093  RH  039%=      5-min Rain = 0
KLA1 192250Z 15006KT 24/09 A2986 RMK A01 T02400093  RH  039%=      5-min Rain = 0
KLA1 192251Z 15007G12KT 24/09 A2986 RMK A01 T02390092  RH  039%=      5-min Rain = 0
KLA1 192252Z 15010KT 24/09 A2986 RMK A01 T02400093  RH  039%=      5-min Rain = 0
KLA1 192253Z 15009KT 24/09 A2986 RMK A01 T02390093  RH  039%=      5-min Rain = 0
KLA1 192254Z 15008KT 24/09 A2986 RMK A01 T02390092  RH  039%=      5-min Rain = 0
KLA1 192255Z 15008KT 24/09 A2986 RMK A01 T02400093  RH  039%=      5-min Rain = 0
KLA1 192256Z 14009KT 24/09 A2986 RMK A01 T02410093  RH  039%=      5-min Rain = 0
KLA1 192257Z 15007KT 24/09 A2986 RMK A01 T02410093  RH  039%=      5-min Rain = 0
KLA1 192258Z 16006KT 24/09 A2986 RMK A01 T02410093  RH  039%=      5-min Rain = 0
KLA1 192259Z 15008G13KT 24/09 A2986 RMK A01 T02420094  RH  039%=      5-min Rain = 0
KLA1 192300Z 16009KT 24/09 A2986 RMK A01 T02420094  RH  039%=      5-min Rain = 0
KLA1 192301Z 16009KT 24/09 A2986 RMK A01 T02410094  RH  039%=      5-min Rain = 0
KLA1 192302Z 16010KT 24/09 A2986 RMK A01 T02410094  RH  039%=      5-min Rain = 0
KLA1 192303Z 15010KT 24/09 A2986 RMK A01 T02400094  RH  040%=      5-min Rain = 0
KLA1 192304Z 15011KT 24/09 A2986 RMK A01 T02400094  RH  040%=      5-min Rain = 0
KLA1 192305Z 16011KT 24/09 A2986 RMK A01 T02400094  RH  039%=      5-min Rain = 0
KLA1 192306Z 15008G13KT 24/09 A2986 RMK A01 T02400094  RH  039%=      5-min Rain = 0
KLA1 192307Z 16007KT 24/09 A2986 RMK A01 T02400094  RH  039%=      5-min Rain = 0
KLA1 192308Z 16006KT 24/09 A2986 RMK A01 T02400094  RH  040%=      5-min Rain = 0
KLA1 192309Z 16007KT 24/10 A2986 RMK A01 T02400095  RH  040%=      5-min Rain = 0
KLA1 192310Z 16009KT 24/10 A2986 RMK A01 T02400095  RH  040%=      5-min Rain = 0
KLA1 192311Z 16012KT 24/10 A2986 RMK A01 T02400095  RH  040%=      5-min Rain = 0
KLA1 192312Z 16009KT 24/10 A2986 RMK A01 T02390095  RH  040%=      5-min Rain = 0
KLA1 192313Z 15009KT 24/10 A2986 RMK A01 T02390096  RH  040%=      5-min Rain = 0
KLA1 192314Z 15010KT 24/10 A2986 RMK A01 T02380096  RH  040%=      5-min Rain = 0
KLA1 192315Z 15009KT 24/10 A2986 RMK A01 T02370096  RH  041%=      5-min Rain = 0
KLA1 192316Z 15008KT 24/10 A2986 RMK A01 T02370096  RH  041%=      5-min Rain = 0
KLA1 192317Z 15010KT 24/10 A2986 RMK A01 T02360096  RH  041%=      5-min Rain = 0
KLA1 192318Z 15009KT 24/10 A2986 RMK A01 T02360096  RH  041%=      5-min Rain = 0
KLA1 192319Z 15006KT 24/10 A2986 RMK A01 T02360097  RH  041%=      5-min Rain = 0
KLA1 192320Z 15008KT 24/10 A2986 RMK A01 T02360097  RH  041%=      5-min Rain = 0
KLA1 192321Z 15008KT 24/10 A2986 RMK A01 T02360097  RH  041%=      5-min Rain = 0
KLA1 192322Z 15009KT 24/10 A2986 RMK A01 T02360097  RH  041%=      5-min Rain = 0
KLA1 192323Z 16010KT 24/10 A2986 RMK A01 T02350097  RH  042%=      5-min Rain = 0
KLA1 192324Z 16009KT 23/10 A2987 RMK A01 T02340098  RH  042%=      5-min Rain = 0
KLA1 192325Z 15009KT 23/10 A2987 RMK A01 T02330098  RH  042%=      5-min Rain = 0
KLA1 192326Z 16010KT 23/10 A2987 RMK A01 T02320098  RH  043%=      5-min Rain = 0
KLA1 192327Z 16012KT 23/10 A2987 RMK A01 T02310099  RH  043%=      5-min Rain = 0
KLA1 192328Z 16009KT 23/10 A2987 RMK A01 T02310099  RH  043%=      5-min Rain = 0
KLA1 192329Z 16009KT 23/10 A2987 RMK A01 T02300099  RH  043%=      5-min Rain = 0
KLA1 192330Z 16011KT 23/10 A2987 RMK A01 T02290099  RH  044%=      5-min Rain = 0
KLA1 192331Z 16012G17KT 23/10 A2987 RMK A01 T02290099  RH  044%=      5-min Rain = 0
KLA1 192332Z 16014KT 23/10 A2987 RMK A01 T02280099  RH  044%=      5-min Rain = 0
KLA1 192333Z 16011KT 23/10 A2987 RMK A01 T02280100  RH  044%=      5-min Rain = 0
KLA1 192334Z 17011KT 23/10 A2987 RMK A01 T02280100  RH  044%=      5-min Rain = 0
KLA1 192335Z 17010KT 23/10 A2987 RMK A01 T02280100  RH  044%=      5-min Rain = 0
KLA1 192336Z 16008KT 23/10 A2987 RMK A01 T02270100  RH  045%=      5-min Rain = 0
KLA1 192337Z 16008KT 23/10 A2987 RMK A01 T02260100  RH  045%=      5-min Rain = 0
KLA1 192338Z 16008G13KT 23/10 A2987 RMK A01 T02250100  RH  045%=      5-min Rain = 0
KLA1 192339Z 16006KT 23/10 A2987 RMK A01 T02250100  RH  045%=      5-min Rain = 0
KLA1 192340Z 16006KT 22/10 A2987 RMK A01 T02230100  RH  045%=      5-min Rain = 0
KLA1 192341Z 14006KT 22/10 A2987 RMK A01 T02220100  RH  046%=      5-min Rain = 0
KLA1 192342Z 14008KT 22/10 A2987 RMK A01 T02220100  RH  046%=      5-min Rain = 0
KLA1 192343Z 14009KT 22/10 A2987 RMK A01 T02220100  RH  046%=      5-min Rain = 0
KLA1 192344Z 14009KT 22/10 A2987 RMK A01 T02210100  RH  046%=      5-min Rain = 0
KLA1 192345Z 13008KT 22/10 A2987 RMK A01 T02210101  RH  046%=      5-min Rain = 0
KLA1 192346Z 14008KT 22/10 A2987 RMK A01 T02210101  RH  046%=      5-min Rain = 0
KLA1 192347Z 13009KT 22/10 A2987 RMK A01 T02210101  RH  047%=      5-min Rain = 0
KLA1 192348Z 14007KT 22/10 A2987 RMK A01 T02210101  RH  047%=      5-min Rain = 0
KLA1 192349Z 14009KT 22/10 A2987 RMK A01 T02210101  RH  047%=      5-min Rain = 0
KLA1 192350Z 14010KT 22/10 A2987 RMK A01 T02200101  RH  047%=      5-min Rain = 0
KLA1 192351Z 14008KT 22/10 A2987 RMK A01 T02200102  RH  047%=      5-min Rain = 0
KLA1 192352Z 15008KT 22/10 A2987 RMK A01 T02200102  RH  047%=      5-min Rain = 0
KLA1 192353Z 15008KT 22/10 A2987 RMK A01 T02190102  RH  047%=      5-min Rain = 0
KLA1 192354Z 14007KT 22/10 A2987 RMK A01 T02180102  RH  047%=      5-min Rain = 0
KLA1 192355Z 14008KT 22/10 A2987 RMK A01 T02170102  RH  048%=      5-min Rain = 0
KLA1 192356Z 15009KT 22/10 A2987 RMK A01 T02170102  RH  048%=      5-min Rain = 0
KLA1 192357Z 15008KT 22/10 A2987 RMK A01 T02170102  RH  048%=      5-min Rain = 0
KLA1 192358Z 15008KT 22/10 A2987 RMK A01 T02170102  RH  048%=      5-min Rain = 0
KLA1 192359Z 14008KT 22/10 A2987 RMK A01 T02170103  RH  048%=      5-min Rain = 0
KLA1 200000Z 14007KT 22/10 A2987 RMK A01 T02160103  RH  048%=      5-min Rain = 0
KLA1 200001Z 14006KT 22/10 A2987 RMK A01 T02170103  RH  048%=      5-min Rain = 0
KLA1 200002Z 13007KT 22/10 A2987 RMK A01 T02160103  RH  048%=      5-min Rain = 0
KLA1 200003Z 12005KT 22/10 A2987 RMK A01 T02160103  RH  049%=      5-min Rain = 0
KLA1 200004Z 13006KT 22/10 A2987 RMK A01 T02150103  RH  049%=      5-min Rain = 0
KLA1 200005Z 13006KT 21/10 A2987 RMK A01 T02130102  RH  049%=      5-min Rain = 0
KLA1 200006Z 13007KT 21/10 A2987 RMK A01 T02120102  RH  050%=      5-min Rain = 0
KLA1 200007Z 13006KT 21/10 A2987 RMK A01 T02110103  RH  050%=      5-min Rain = 0
KLA1 200008Z 12006KT 21/10 A2987 RMK A01 T02110103  RH  050%=      5-min Rain = 0
KLA1 200009Z 12006KT 21/10 A2987 RMK A01 T02100103  RH  050%=      5-min Rain = 0
KLA1 200010Z 12006KT 21/10 A2987 RMK A01 T02100103  RH  050%=      5-min Rain = 0
KLA1 200011Z 12007KT 21/10 A2987 RMK A01 T02100104  RH  051%=      5-min Rain = 0
KLA1 200012Z 12007KT 21/10 A2987 RMK A01 T02090104  RH  051%=      5-min Rain = 0
KLA1 200013Z 12008KT 21/10 A2987 RMK A01 T02090104  RH  051%=      5-min Rain = 0
KLA1 200014Z 13008KT 21/10 A2987 RMK A01 T02100104  RH  051%=      5-min Rain = 0
KLA1 200015Z 12006KT 21/11 A2987 RMK A01 T02100105  RH  051%=      5-min Rain = 0
KLA1 200016Z 13006KT 21/11 A2987 RMK A01 T02110105  RH  051%=      5-min Rain = 0
KLA1 200017Z 13008KT 21/11 A2987 RMK A01 T02100105  RH  051%=      5-min Rain = 0
KLA1 200018Z 13007KT 21/11 A2987 RMK A01 T02090105  RH  051%=      5-min Rain = 0
KLA1 200019Z 13006KT 21/11 A2987 RMK A01 T02100106  RH  051%=      5-min Rain = 0
KLA1 200020Z 13007KT 21/11 A2987 RMK A01 T02090106  RH  052%=      5-min Rain = 0
KLA1 200021Z 13007KT 21/11 A2988 RMK A01 T02090106  RH  052%=      5-min Rain = 0
KLA1 200022Z 12007KT 21/11 A2987 RMK A01 T02080106  RH  052%=      5-min Rain = 0
KLA1 200023Z 12006KT 21/11 A2988 RMK A01 T02070106  RH  052%=      5-min Rain = 0
KLA1 200024Z 12007KT 21/11 A2988 RMK A01 T02060105  RH  052%=      5-min Rain = 0
KLA1 200025Z 12006KT 21/11 A2988 RMK A01 T02060106  RH  053%=      5-min Rain = 0
KLA1 200026Z 12006KT 21/11 A2988 RMK A01 T02060106  RH  053%=      5-min Rain = 0
KLA1 200027Z 12007KT 21/11 A2988 RMK A01 T02060107  RH  053%=      5-min Rain = 0
KLA1 200028Z 12006KT 21/11 A2988 RMK A01 T02060106  RH  053%=      5-min Rain = 0
KLA1 200029Z 12006KT 21/11 A2988 RMK A01 T02060106  RH  053%=      5-min Rain = 0
KLA1 200030Z 11007KT 21/11 A2988 RMK A01 T02050106  RH  053%=      5-min Rain = 0
KLA1 200031Z 12008KT 21/11 A2988 RMK A01 T02050106  RH  053%=      5-min Rain = 0
KLA1 200032Z 12007KT 21/11 A2988 RMK A01 T02050106  RH  053%=      5-min Rain = 0
KLA1 200033Z 12007KT 21/11 A2988 RMK A01 T02050106  RH  053%=      5-min Rain = 0
KLA1 200034Z 12007KT 21/11 A2988 RMK A01 T02050107  RH  053%=      5-min Rain = 0
KLA1 200035Z 12007KT 21/11 A2988 RMK A01 T02050107  RH  053%=      5-min Rain = 0
KLA1 200036Z 12006KT 20/11 A2988 RMK A01 T02040106  RH  053%=      5-min Rain = 0
KLA1 200037Z 12007KT 20/11 A2988 RMK A01 T02030106  RH  054%=      5-min Rain = 0
KLA1 200038Z 12006KT 20/11 A2988 RMK A01 T02030106  RH  054%=      5-min Rain = 0
KLA1 200039Z 13007KT 20/11 A2988 RMK A01 T02020106  RH  054%=      5-min Rain = 0
KLA1 200040Z 12007KT 20/11 A2988 RMK A01 T02020107  RH  054%=      5-min Rain = 0
KLA1 200041Z 12008KT 20/11 A2988 RMK A01 T02020107  RH  054%=      5-min Rain = 0
KLA1 200042Z 12006KT 20/11 A2988 RMK A01 T02010107  RH  054%=      5-min Rain = 0
KLA1 200043Z 12007KT 20/11 A2988 RMK A01 T02010107  RH  054%=      5-min Rain = 0
KLA1 200044Z 12007KT 20/11 A2988 RMK A01 T02010107  RH  055%=      5-min Rain = 0
KLA1 200045Z 12007KT 20/11 A2988 RMK A01 T02010107  RH  055%=      5-min Rain = 0
KLA1 200046Z 12007KT 20/11 A2988 RMK A01 T02000107  RH  055%=      5-min Rain = 0
KLA1 200047Z 12008KT 20/11 A2988 RMK A01 T02010107  RH  055%=      5-min Rain = 0
KLA1 200048Z 12008KT 20/11 A2988 RMK A01 T02010107  RH  055%=      5-min Rain = 0
KLA1 200049Z 12007KT 20/11 A2988 RMK A01 T02010107  RH  055%=      5-min Rain = 0
KLA1 200050Z 12007KT 20/11 A2988 RMK A01 T02010107  RH  055%=      5-min Rain = 0
KLA1 200051Z 11007KT 20/11 A2988 RMK A01 T02010107  RH  055%=      5-min Rain = 0
KLA1 200052Z 12007KT 20/11 A2988 RMK A01 T02010107  RH  055%=      5-min Rain = 0
KLA1 200053Z 11006KT 20/11 A2988 RMK A01 T02010107  RH  055%=      5-min Rain = 0
KLA1 200054Z 12006KT 20/11 A2988 RMK A01 T02010107  RH  055%=      5-min Rain = 0
KLA1 200055Z 11007KT 20/11 A2988 RMK A01 T02010107  RH  055%=      5-min Rain = 0
KLA1 200056Z 12006KT 20/11 A2989 RMK A01 T02010107  RH  055%=      5-min Rain = 0
KLA1 200057Z 11007KT 20/11 A2989 RMK A01 T02010107  RH  055%=      5-min Rain = 0
KLA1 200058Z 11007KT 20/11 A2989 RMK A01 T02010107  RH  055%=      5-min Rain = 0
KLA1 200059Z 11007KT 20/11 A2989 RMK A01 T02020107  RH  054%=      5-min Rain = 0
KLA1 200100Z 11006KT 20/11 A2989 RMK A01 T02020107  RH  054%=      5-min Rain = 0
KLA1 200101Z 12007KT 20/11 A2989 RMK A01 T02020107  RH  054%=      5-min Rain = 0
KLA1 200102Z 11006KT 20/11 A2989 RMK A01 T02020107  RH  054%=      5-min Rain = 0
KLA1 200103Z 11006KT 20/11 A2989 RMK A01 T02020107  RH  054%=      5-min Rain = 0
KLA1 200104Z 11006KT 20/11 A2989 RMK A01 T02020107  RH  055%=      5-min Rain = 0
KLA1 200105Z 11007KT 20/11 A2989 RMK A01 T02020107  RH  054%=      5-min Rain = 0
KLA1 200106Z 11006KT 20/11 A2989 RMK A01 T02010107  RH  055%=      5-min Rain = 0
KLA1 200107Z 11007KT 20/11 A2989 RMK A01 T02010107  RH  055%=      5-min Rain = 0
KLA1 200108Z 11006KT 20/11 A2988 RMK A01 T02010108  RH  055%=      5-min Rain = 0
KLA1 200109Z 11006KT 20/11 A2988 RMK A01 T02010107  RH  055%=      5-min Rain = 0
KLA1 200110Z 11007KT 20/11 A2988 RMK A01 T02010107  RH  055%=      5-min Rain = 0
KLA1 200111Z 11006KT 20/11 A2988 RMK A01 T02010107  RH  055%=      5-min Rain = 0
KLA1 200112Z 11007KT 20/11 A2988 RMK A01 T02010107  RH  055%=      5-min Rain = 0
KLA1 200113Z 11008KT 20/11 A2988 RMK A01 T02010108  RH  055%=      5-min Rain = 0
KLA1 200114Z 11006KT 20/11 A2988 RMK A01 T02000108  RH  055%=      5-min Rain = 0
KLA1 200115Z 11006KT 20/11 A2988 RMK A01 T02000107  RH  055%=      5-min Rain = 0
KLA1 200116Z 11006KT 20/11 A2988 RMK A01 T02000107  RH  055%=      5-min Rain = 0
KLA1 200117Z 11006KT 20/11 A2988 RMK A01 T02000107  RH  055%=      5-min Rain = 0
KLA1 200118Z 11007KT 20/11 A2988 RMK A01 T01990108  RH  055%=      5-min Rain = 0
KLA1 200119Z 11007KT 20/11 A2988 RMK A01 T01990107  RH  055%=      5-min Rain = 0
KLA1 200120Z 11006KT 20/11 A2988 RMK A01 T01990107  RH  055%=      5-min Rain = 0
KLA1 200121Z 11007KT 20/11 A2988 RMK A01 T01990107  RH  055%=      5-min Rain = 0
KLA1 200122Z 10006KT 20/11 A2988 RMK A01 T01990107  RH  056%=      5-min Rain = 0
KLA1 200123Z 10006KT 20/11 A2988 RMK A01 T01990108  RH  056%=      5-min Rain = 0
KLA1 200124Z 10005KT 20/11 A2988 RMK A01 T01990108  RH  056%=      5-min Rain = 0
KLA1 200125Z 10007KT 20/11 A2989 RMK A01 T01980107  RH  056%=      5-min Rain = 0
KLA1 200126Z 10006KT 20/11 A2989 RMK A01 T01980107  RH  056%=      5-min Rain = 0
KLA1 200127Z 10007KT 20/11 A2988 RMK A01 T01980108  RH  056%=      5-min Rain = 0
KLA1 200128Z 10006KT 20/11 A2988 RMK A01 T01970108  RH  056%=      5-min Rain = 0
KLA1 200129Z 10007KT 20/11 A2988 RMK A01 T01980108  RH  056%=      5-min Rain = 0
KLA1 200130Z 10006KT 20/11 A2988 RMK A01 T01980108  RH  056%=      5-min Rain = 0
KLA1 200131Z 10007KT 20/11 A2988 RMK A01 T01980108  RH  056%=      5-min Rain = 0
KLA1 200132Z 10006KT 20/11 A2988 RMK A01 T01980108  RH  056%=      5-min Rain = 0
KLA1 200133Z 10007KT 20/11 A2988 RMK A01 T01970108  RH  056%=      5-min Rain = 0
KLA1 200134Z 10006KT 20/11 A2988 RMK A01 T01970108  RH  056%=      5-min Rain = 0
KLA1 200135Z 10006KT 20/11 A2988 RMK A01 T01970108  RH  056%=      5-min Rain = 0
KLA1 200136Z 10007KT 20/11 A2988 RMK A01 T01970108  RH  057%=      5-min Rain = 0
KLA1 200137Z 10007KT 20/11 A2988 RMK A01 T01970108  RH  056%=      5-min Rain = 0
KLA1 200138Z 10007KT 20/11 A2988 RMK A01 T01970108  RH  056%=      5-min Rain = 0
KLA1 200139Z 10006KT 20/11 A2988 RMK A01 T01970108  RH  056%=      5-min Rain = 0
KLA1 200140Z 09006KT 20/11 A2988 RMK A01 T01970108  RH  056%=      5-min Rain = 0
KLA1 200141Z 10008KT 20/11 A2988 RMK A01 T01970109  RH  057%=      5-min Rain = 0
KLA1 200142Z 10007KT 20/11 A2988 RMK A01 T01970109  RH  057%=      5-min Rain = 0
KLA1 200143Z 10008KT 20/11 A2988 RMK A01 T01970109  RH  057%=      5-min Rain = 0
KLA1 200144Z 10006KT 20/11 A2988 RMK A01 T01970109  RH  057%=      5-min Rain = 0
KLA1 200145Z 09006KT 20/11 A2988 RMK A01 T01970109  RH  057%=      5-min Rain = 0
KLA1 200146Z 10008KT 20/11 A2988 RMK A01 T01970109  RH  057%=      5-min Rain = 0
KLA1 200147Z 09005KT 20/11 A2988 RMK A01 T01970109  RH  057%=      5-min Rain = 0
KLA1 200148Z 11007G12KT 20/11 A2988 RMK A01 T01970109  RH  057%=      5-min Rain = 0
KLA1 200149Z 10006KT 20/11 A2988 RMK A01 T01970109  RH  057%=      5-min Rain = 0
KLA1 200150Z 10007KT 20/11 A2988 RMK A01 T01970109  RH  057%=      5-min Rain = 0
KLA1 200151Z 10006KT 20/11 A2988 RMK A01 T01970109  RH  057%=      5-min Rain = 0
KLA1 200152Z 10007KT 20/11 A2988 RMK A01 T01970110  RH  057%=      5-min Rain = 0
KLA1 200153Z 10008KT 20/11 A2988 RMK A01 T01970109  RH  057%=      5-min Rain = 0
KLA1 200154Z 10007KT 20/11 A2989 RMK A01 T01970109  RH  057%=      5-min Rain = 0
KLA1 200155Z 09007KT 20/11 A2989 RMK A01 T01970110  RH  057%=      5-min Rain = 0
KLA1 200156Z 10008KT 20/11 A2989 RMK A01 T01970110  RH  057%=      5-min Rain = 0
KLA1 200157Z 10007KT 20/11 A2989 RMK A01 T01970111  RH  057%=      5-min Rain = 0
KLA1 200158Z 09007KT 20/11 A2989 RMK A01 T01970111  RH  057%=      5-min Rain = 0
KLA1 200159Z 10006KT 20/11 A2989 RMK A01 T01970111  RH  058%=      5-min Rain = 0
KLA1 200200Z 09008KT 20/11 A2989 RMK A01 T01960111  RH  058%=      5-min Rain = 0
KLA1 200201Z 10007KT 20/11 A2989 RMK A01 T01960110  RH  058%=      5-min Rain = 0
KLA1 200202Z 10006KT 20/11 A2989 RMK A01 T01970111  RH  058%=      5-min Rain = 0
KLA1 200203Z 09006KT 20/11 A2989 RMK A01 T01960111  RH  058%=      5-min Rain = 0
KLA1 200204Z 10007KT 20/11 A2989 RMK A01 T01960111  RH  058%=      5-min Rain = 0
KLA1 200205Z 10008KT 20/11 A2989 RMK A01 T01960110  RH  058%=      5-min Rain = 0
KLA1 200206Z 10007KT 20/11 A2989 RMK A01 T01950110  RH  058%=      5-min Rain = 0
KLA1 200207Z 10008KT 20/11 A2989 RMK A01 T01950111  RH  058%=      5-min Rain = 0
KLA1 200208Z 10007KT 20/11 A2989 RMK A01 T01950111  RH  058%=      5-min Rain = 0
KLA1 200209Z 10007KT 20/11 A2989 RMK A01 T01950111  RH  058%=      5-min Rain = 0
KLA1 200210Z 10007KT 20/11 A2989 RMK A01 T01950111  RH  058%=      5-min Rain = 0
KLA1 200211Z 11007KT 20/11 A2989 RMK A01 T01950111  RH  058%=      5-min Rain = 0
KLA1 200212Z 10007KT 20/11 A2989 RMK A01 T01950111  RH  058%=      5-min Rain = 0
KLA1 200213Z 10009KT 19/11 A2989 RMK A01 T01940111  RH  059%=      5-min Rain = 0
KLA1 200214Z 10007KT 19/11 A2989 RMK A01 T01940111  RH  059%=      5-min Rain = 0
KLA1 200215Z 10008KT 19/11 A2989 RMK A01 T01940111  RH  059%=      5-min Rain = 0
KLA1 200216Z 10008KT 19/11 A2989 RMK A01 T01930111  RH  059%=      5-min Rain = 0
KLA1 200217Z 10007KT 19/11 A2989 RMK A01 T01930112  RH  059%=      5-min Rain = 0
KLA1 200218Z 10007KT 19/11 A2989 RMK A01 T01930112  RH  059%=      5-min Rain = 0
KLA1 200219Z 11008KT 19/11 A2989 RMK A01 T01930112  RH  059%=      5-min Rain = 0
KLA1 200220Z 10008KT 19/11 A2989 RMK A01 T01930112  RH  059%=      5-min Rain = 0
KLA1 200221Z 10008KT 19/11 A2989 RMK A01 T01930112  RH  060%=      5-min Rain = 0
KLA1 200222Z 10010KT 19/11 A2989 RMK A01 T01930113  RH  060%=      5-min Rain = 0
KLA1 200223Z 10007KT 19/11 A2989 RMK A01 T01930113  RH  060%=      5-min Rain = 0
KLA1 200224Z 10009KT 19/11 A299 RMK A01 T01930113  RH  060%=      5-min Rain = 0
KLA1 200225Z 10008KT 19/11 A299 RMK A01 T01930113  RH  060%=      5-min Rain = 0
KLA1 200226Z 10008KT 19/11 A299 RMK A01 T01920113  RH  060%=      5-min Rain = 0
KLA1 200227Z 10008KT 19/11 A299 RMK A01 T01920113  RH  060%=      5-min Rain = 0
KLA1 200228Z 10008KT 19/11 A299 RMK A01 T01920114  RH  061%=      5-min Rain = 0
KLA1 200229Z 10007KT 19/11 A299 RMK A01 T01910114  RH  061%=      5-min Rain = 0
KLA1 200230Z 10006KT 19/11 A299 RMK A01 T01910114  RH  061%=      5-min Rain = 0
KLA1 200231Z 11007KT 19/11 A299 RMK A01 T01900113  RH  061%=      5-min Rain = 0
KLA1 200232Z 10005KT 19/11 A299 RMK A01 T01890113  RH  061%=      5-min Rain = 0
KLA1 200233Z 11007KT 19/11 A299 RMK A01 T01890113  RH  062%=      5-min Rain = 0
KLA1 200234Z 10006KT 19/11 A299 RMK A01 T01880114  RH  062%=      5-min Rain = 0
KLA1 200235Z 11006KT 19/11 A299 RMK A01 T01880114  RH  062%=      5-min Rain = 0
KLA1 200236Z 10006KT 19/11 A299 RMK A01 T01870114  RH  062%=      5-min Rain = 0
KLA1 200237Z 10007KT 19/11 A299 RMK A01 T01870114  RH  063%=      5-min Rain = 0
KLA1 200238Z 11006KT 19/11 A299 RMK A01 T01860114  RH  063%=      5-min Rain = 0
KLA1 200239Z 11007KT 19/11 A299 RMK A01 T01860114  RH  063%=      5-min Rain = 0
KLA1 200240Z 11007KT 19/11 A299 RMK A01 T01850114  RH  063%=      5-min Rain = 0
KLA1 200241Z 11007KT 19/11 A299 RMK A01 T01850114  RH  063%=      5-min Rain = 0
KLA1 200242Z 11008KT 19/11 A299 RMK A01 T01850114  RH  063%=      5-min Rain = 0
KLA1 200243Z 10007KT 19/12 A299 RMK A01 T01850115  RH  063%=      5-min Rain = 0
KLA1 200244Z 11007KT 19/11 A299 RMK A01 T01850114  RH  063%=      5-min Rain = 0
KLA1 200245Z 11006KT 19/11 A299 RMK A01 T01850114  RH  063%=      5-min Rain = 0
KLA1 200246Z 12006KT 18/11 A299 RMK A01 T01840114  RH  064%=      5-min Rain = 0
KLA1 200247Z 12007KT 18/11 A299 RMK A01 T01840114  RH  064%=      5-min Rain = 0
KLA1 200248Z 11005KT 18/11 A299 RMK A01 T01840114  RH  064%=      5-min Rain = 0
KLA1 200249Z 11005KT 18/11 A299 RMK A01 T01830114  RH  064%=      5-min Rain = 0
KLA1 200250Z 12005KT 18/12 A299 RMK A01 T01830115  RH  064%=      5-min Rain = 0
KLA1 200251Z 12004KT 18/11 A299 RMK A01 T01820114  RH  065%=      5-min Rain = 0
KLA1 200252Z 12004KT 18/11 A299 RMK A01 T01810114  RH  065%=      5-min Rain = 0
KLA1 200253Z 12005KT 18/11 A299 RMK A01 T01810114  RH  065%=      5-min Rain = 0
KLA1 200254Z 12006KT 18/11 A299 RMK A01 T01800114  RH  065%=      5-min Rain = 0
KLA1 200255Z 12006KT 18/11 A299 RMK A01 T01800114  RH  066%=      5-min Rain = 0
KLA1 200256Z 11005KT 18/11 A299 RMK A01 T01790114  RH  066%=      5-min Rain = 0
KLA1 200257Z 11005KT 18/11 A299 RMK A01 T01790114  RH  066%=      5-min Rain = 0
KLA1 200258Z 11006KT 18/12 A299 RMK A01 T01790115  RH  066%=      5-min Rain = 0
KLA1 200259Z 11006KT 18/12 A299 RMK A01 T01790115  RH  066%=      5-min Rain = 0
KLA1 200300Z 11007KT 18/12 A299 RMK A01 T01790115  RH  066%=      5-min Rain = 0
KLA1 200301Z 12008KT 18/12 A299 RMK A01 T01790115  RH  066%=      5-min Rain = 0
KLA1 200302Z 12007KT 18/12 A299 RMK A01 T01800115  RH  066%=      5-min Rain = 0
KLA1 200303Z 12008KT 18/12 A299 RMK A01 T01810115  RH  066%=      5-min Rain = 0
KLA1 200304Z 11007KT 18/12 A299 RMK A01 T01810116  RH  066%=      5-min Rain = 0
KLA1 200305Z 12008KT 18/12 A299 RMK A01 T01810116  RH  066%=      5-min Rain = 0
KLA1 200306Z 12008KT 18/12 A299 RMK A01 T01820116  RH  066%=      5-min Rain = 0
KLA1 200307Z 11008KT 18/12 A299 RMK A01 T01820116  RH  065%=      5-min Rain = 0
KLA1 200308Z 11008KT 18/12 A299 RMK A01 T01830117  RH  065%=      5-min Rain = 0
KLA1 200309Z 11008KT 18/12 A299 RMK A01 T01830117  RH  065%=      5-min Rain = 0
KLA1 200310Z 11009KT 18/12 A299 RMK A01 T01830117  RH  065%=      5-min Rain = 0
KLA1 200311Z 12007KT 18/12 A299 RMK A01 T01840117  RH  065%=      5-min Rain = 0
KLA1 200312Z 12008KT 18/12 A2991 RMK A01 T01840117  RH  065%=      5-min Rain = 0
KLA1 200313Z 12008KT 18/12 A299 RMK A01 T01840117  RH  065%=      5-min Rain = 0
KLA1 200314Z 11010KT 18/12 A299 RMK A01 T01840117  RH  065%=      5-min Rain = 0
KLA1 200315Z 11008KT 18/12 A299 RMK A01 T01840117  RH  065%=      5-min Rain = 0
KLA1 200316Z 12009KT 19/12 A299 RMK A01 T01850118  RH  065%=      5-min Rain = 0
KLA1 200317Z 11009KT 18/12 A299 RMK A01 T01840118  RH  065%=      5-min Rain = 0
KLA1 200318Z 11010KT 18/12 A299 RMK A01 T01840118  RH  065%=      5-min Rain = 0
KLA1 200319Z 11009KT 18/12 A299 RMK A01 T01840118  RH  065%=      5-min Rain = 0
KLA1 200320Z 11009KT 18/12 A299 RMK A01 T01840118  RH  065%=      5-min Rain = 0
KLA1 200321Z 11008KT 18/12 A299 RMK A01 T01840118  RH  065%=      5-min Rain = 0
KLA1 200322Z 11010KT 18/12 A2989 RMK A01 T01840118  RH  065%=      5-min Rain = 0
KLA1 200323Z 11009KT 18/12 A2989 RMK A01 T01840118  RH  065%=      5-min Rain = 0
KLA1 200324Z 11010KT 18/12 A2989 RMK A01 T01840118  RH  065%=      5-min Rain = 0
KLA1 200325Z 11009KT 18/12 A2989 RMK A01 T01840118  RH  065%=      5-min Rain = 0
KLA1 200326Z 12009KT 18/12 A2989 RMK A01 T01840118  RH  065%=      5-min Rain = 0
KLA1 200327Z 12008KT 18/12 A2989 RMK A01 T01840119  RH  065%=      5-min Rain = 0
KLA1 200328Z 12008KT 18/12 A299 RMK A01 T01840119  RH  065%=      5-min Rain = 0
KLA1 200329Z 12007KT 18/12 A299 RMK A01 T01840119  RH  066%=      5-min Rain = 0
KLA1 200330Z 12008KT 18/12 A299 RMK A01 T01840119  RH  066%=      5-min Rain = 0
KLA1 200331Z 12008KT 18/12 A299 RMK A01 T01830119  RH  066%=      5-min Rain = 0
KLA1 200332Z 12008KT 18/12 A299 RMK A01 T01840119  RH  066%=      5-min Rain = 0
KLA1 200333Z 12008KT 18/12 A299 RMK A01 T01830119  RH  066%=      5-min Rain = 0
KLA1 200334Z 12007KT 18/12 A299 RMK A01 T01830119  RH  066%=      5-min Rain = 0
KLA1 200335Z 13008KT 18/12 A299 RMK A01 T01820119  RH  066%=      5-min Rain = 0
KLA1 200336Z 12007KT 18/12 A299 RMK A01 T01820119  RH  066%=      5-min Rain = 0
KLA1 200337Z 12007KT 18/12 A299 RMK A01 T01810119  RH  067%=      5-min Rain = 0
KLA1 200338Z 12008KT 18/12 A299 RMK A01 T01810119  RH  067%=      5-min Rain = 0
KLA1 200339Z 12008KT 18/12 A299 RMK A01 T01810119  RH  067%=      5-min Rain = 0
KLA1 200340Z 12007KT 18/12 A299 RMK A01 T01810119  RH  067%=      5-min Rain = 0
KLA1 200341Z 12006KT 18/12 A299 RMK A01 T01810119  RH  067%=      5-min Rain = 0
KLA1 200342Z 12007KT 18/12 A299 RMK A01 T01810119  RH  067%=      5-min Rain = 0
KLA1 200343Z 12007KT 18/12 A299 RMK A01 T01810119  RH  067%=      5-min Rain = 0
KLA1 200344Z 12007KT 18/12 A299 RMK A01 T01820120  RH  067%=      5-min Rain = 0
KLA1 200345Z 11008KT 18/12 A299 RMK A01 T01830120  RH  067%=      5-min Rain = 0
KLA1 200346Z 11009KT 18/12 A2989 RMK A01 T01840120  RH  066%=      5-min Rain = 0
KLA1 200347Z 12007KT 18/12 A299 RMK A01 T01840120  RH  066%=      5-min Rain = 0
KLA1 200348Z 11008KT 18/12 A299 RMK A01 T01840120  RH  066%=      5-min Rain = 0
KLA1 200349Z 12007KT 18/12 A299 RMK A01 T01840120  RH  066%=      5-min Rain = 0
KLA1 200350Z 11008KT 18/12 A299 RMK A01 T01840120  RH  066%=      5-min Rain = 0
KLA1 200351Z 11007KT 19/12 A299 RMK A01 T01850120  RH  066%=      5-min Rain = 0
KLA1 200352Z 11009KT 19/12 A299 RMK A01 T01850120  RH  066%=      5-min Rain = 0
KLA1 200353Z 11008KT 19/12 A299 RMK A01 T01860120  RH  065%=      5-min Rain = 0
KLA1 200354Z 11008KT 19/12 A299 RMK A01 T01860120  RH  065%=      5-min Rain = 0
KLA1 200355Z 11009KT 19/12 A299 RMK A01 T01860120  RH  065%=      5-min Rain = 0
KLA1 200356Z 11008KT 19/12 A299 RMK A01 T01860120  RH  065%=      5-min Rain = 0
KLA1 200357Z 11010KT 19/12 A299 RMK A01 T01860120  RH  065%=      5-min Rain = 0
KLA1 200358Z 11009KT 19/12 A299 RMK A01 T01860120  RH  065%=      5-min Rain = 0
KLA1 200359Z 11008KT 19/12 A299 RMK A01 T01860120  RH  065%=      5-min Rain = 0
KLA1 200400Z 11008KT 19/12 A299 RMK A01 T01870120  RH  065%=      5-min Rain = 0
KLA1 200401Z 11007KT 19/12 A299 RMK A01 T01860120  RH  065%=      5-min Rain = 0
KLA1 200402Z 11008KT 19/12 A299 RMK A01 T01860120  RH  066%=      5-min Rain = 0
KLA1 200403Z 12008KT 19/12 A299 RMK A01 T01860120  RH  066%=      5-min Rain = 0
KLA1 200404Z 12007KT 19/12 A299 RMK A01 T01850120  RH  066%=      5-min Rain = 0
KLA1 200405Z 12007KT 19/12 A299 RMK A01 T01850120  RH  066%=      5-min Rain = 0
KLA1 200406Z 11005KT 19/12 A299 RMK A01 T01850120  RH  066%=      5-min Rain = 0
KLA1 200407Z 10006KT 18/12 A299 RMK A01 T01830120  RH  066%=      5-min Rain = 0
KLA1 200408Z 11007KT 18/12 A299 RMK A01 T01830120  RH  066%=      5-min Rain = 0
KLA1 200409Z 11008KT 18/12 A299 RMK A01 T01830120  RH  067%=      5-min Rain = 0
KLA1 200410Z 11007KT 18/12 A299 RMK A01 T01830120  RH  067%=      5-min Rain = 0
KLA1 200411Z 11008KT 18/12 A299 RMK A01 T01830120  RH  067%=      5-min Rain = 0
KLA1 200412Z 10009KT 18/12 A299 RMK A01 T01830120  RH  067%=      5-min Rain = 0
KLA1 200413Z 10010KT 18/12 A299 RMK A01 T01840121  RH  067%=      5-min Rain = 0
KLA1 200414Z 11007KT 19/12 A299 RMK A01 T01850121  RH  066%=      5-min Rain = 0
KLA1 200415Z 10006KT 19/12 A299 RMK A01 T01860121  RH  066%=      5-min Rain = 0
KLA1 200416Z 11009KT 19/12 A299 RMK A01 T01860121  RH  066%=      5-min Rain = 0
KLA1 200417Z 10009KT 19/12 A299 RMK A01 T01860121  RH  066%=      5-min Rain = 0
KLA1 200418Z 10009KT 19/12 A299 RMK A01 T01860121  RH  066%=      5-min Rain = 0
KLA1 200419Z 10008KT 19/12 A299 RMK A01 T01860121  RH  066%=      5-min Rain = 0
KLA1 200420Z 10009KT 19/12 A299 RMK A01 T01860121  RH  066%=      5-min Rain = 0
KLA1 200421Z 10008KT 19/12 A299 RMK A01 T01860121  RH  066%=      5-min Rain = 0
KLA1 200422Z 10009KT 19/12 A299 RMK A01 T01870121  RH  065%=      5-min Rain = 0
KLA1 200423Z 10007KT 19/12 A299 RMK A01 T01870121  RH  066%=      5-min Rain = 0
KLA1 200424Z 10008KT 19/12 A299 RMK A01 T01860121  RH  066%=      5-min Rain = 0
KLA1 200425Z 10008KT 19/12 A299 RMK A01 T01870121  RH  066%=      5-min Rain = 0
KLA1 200426Z 10008KT 19/12 A299 RMK A01 T01860121  RH  066%=      5-min Rain = 0
KLA1 200427Z 08005KT 19/12 A299 RMK A01 T01860121  RH  066%=      5-min Rain = 0
KLA1 200428Z 10006KT 19/12 A299 RMK A01 T01860121  RH  066%=      5-min Rain = 0
KLA1 200429Z 10008KT 19/12 A299 RMK A01 T01860121  RH  066%=      5-min Rain = 0
KLA1 200430Z 10007KT 19/12 A299 RMK A01 T01860121  RH  066%=      5-min Rain = 0
KLA1 200431Z 09007KT 19/12 A299 RMK A01 T01860121  RH  066%=      5-min Rain = 0
KLA1 200432Z 10006KT 19/12 A299 RMK A01 T01860121  RH  066%=      5-min Rain = 0
KLA1 200433Z 10008KT 19/12 A299 RMK A01 T01850121  RH  066%=      5-min Rain = 0
KLA1 200434Z 09005KT 19/12 A299 RMK A01 T01850121  RH  066%=      5-min Rain = 0
KLA1 200435Z 09006KT 19/12 A299 RMK A01 T01850121  RH  066%=      5-min Rain = 0
KLA1 200436Z 10007KT 18/12 A299 RMK A01 T01840121  RH  066%=      5-min Rain = 0
KLA1 200437Z 09006KT 18/12 A299 RMK A01 T01840121  RH  067%=      5-min Rain = 0
KLA1 200438Z 09007KT 18/12 A299 RMK A01 T01840121  RH  067%=      5-min Rain = 0
KLA1 200439Z 09008KT 18/12 A299 RMK A01 T01840121  RH  067%=      5-min Rain = 0
KLA1 200440Z 09007KT 18/12 A299 RMK A01 T01840121  RH  067%=      5-min Rain = 0
KLA1 200441Z 09007KT 18/12 A299 RMK A01 T01840121  RH  067%=      5-min Rain = 0
KLA1 200442Z 08007KT 19/12 A299 RMK A01 T01850122  RH  067%=      5-min Rain = 0
KLA1 200443Z 09008KT 18/12 A299 RMK A01 T01840121  RH  067%=      5-min Rain = 0
KLA1 200444Z 09008KT 18/12 A299 RMK A01 T01840121  RH  067%=      5-min Rain = 0
KLA1 200445Z 09008KT 18/12 A299 RMK A01 T01830121  RH  067%=      5-min Rain = 0
KLA1 200446Z 09007KT 18/12 A299 RMK A01 T01840121  RH  067%=      5-min Rain = 0
KLA1 200447Z 09008KT 18/12 A299 RMK A01 T01840121  RH  067%=      5-min Rain = 0
KLA1 200448Z 08007KT 18/12 A299 RMK A01 T01840121  RH  067%=      5-min Rain = 0
KLA1 200449Z 09007KT 19/12 A299 RMK A01 T01850122  RH  067%=      5-min Rain = 0
KLA1 200450Z 09007KT 19/12 A299 RMK A01 T01850122  RH  067%=      5-min Rain = 0
KLA1 200451Z 09009KT 19/12 A299 RMK A01 T01850122  RH  067%=      5-min Rain = 0
KLA1 200452Z 09007KT 19/12 A299 RMK A01 T01850122  RH  067%=      5-min Rain = 0
KLA1 200453Z 09006KT 19/12 A299 RMK A01 T01850121  RH  067%=      5-min Rain = 0
KLA1 200454Z 08007KT 19/12 A299 RMK A01 T01850122  RH  067%=      5-min Rain = 0
KLA1 200455Z 10007KT 18/12 A299 RMK A01 T01840122  RH  067%=      5-min Rain = 0
KLA1 200456Z 09006KT 18/12 A299 RMK A01 T01840121  RH  067%=      5-min Rain = 0
KLA1 200457Z 08006KT 18/12 A299 RMK A01 T01840122  RH  067%=      5-min Rain = 0
KLA1 200458Z 09008KT 18/12 A299 RMK A01 T01840122  RH  067%=      5-min Rain = 0
KLA1 200459Z 08007KT 18/12 A299 RMK A01 T01840122  RH  067%=      5-min Rain = 0
KLA1 200500Z 10009KT 18/12 A299 RMK A01 T01840122  RH  067%=      5-min Rain = 0
KLA1 200501Z 09006KT 18/12 A299 RMK A01 T01840122  RH  067%=      5-min Rain = 0
KLA1 200502Z 09006KT 19/12 A299 RMK A01 T01850122  RH  067%=      5-min Rain = 0
KLA1 200503Z 09006KT 19/12 A299 RMK A01 T01850122  RH  067%=      5-min Rain = 0
KLA1 200504Z 09009KT 19/12 A299 RMK A01 T01850122  RH  067%=      5-min Rain = 0
KLA1 200505Z 09007KT 19/12 A299 RMK A01 T01850122  RH  067%=      5-min Rain = 0
KLA1 200506Z 09008KT 19/12 A299 RMK A01 T01860122  RH  066%=      5-min Rain = 0
KLA1 200507Z 10008KT 19/12 A299 RMK A01 T01860122  RH  066%=      5-min Rain = 0
KLA1 200508Z 09006KT 19/12 A299 RMK A01 T01860122  RH  066%=      5-min Rain = 0
KLA1 200509Z 10006KT 19/12 A299 RMK A01 T01860122  RH  066%=      5-min Rain = 0
KLA1 200510Z 10009KT 19/12 A299 RMK A01 T01860122  RH  066%=      5-min Rain = 0
KLA1 200511Z 09007G12KT 19/12 A299 RMK A01 T01860122  RH  066%=      5-min Rain = 0
KLA1 200512Z 09008KT 19/12 A299 RMK A01 T01870122  RH  066%=      5-min Rain = 0
KLA1 200513Z 10010KT 19/12 A299 RMK A01 T01870122  RH  066%=      5-min Rain = 0
KLA1 200514Z 10007KT 19/12 A299 RMK A01 T01880122  RH  065%=      5-min Rain = 0
KLA1 200515Z 09009KT 19/12 A299 RMK A01 T01880122  RH  065%=      5-min Rain = 0
KLA1 200516Z 10008KT 19/12 A299 RMK A01 T01880122  RH  065%=      5-min Rain = 0
KLA1 200517Z 09006KT 19/12 A299 RMK A01 T01880122  RH  065%=      5-min Rain = 0
KLA1 200518Z 09008KT 19/12 A299 RMK A01 T01870121  RH  065%=      5-min Rain = 0
KLA1 200519Z 10008KT 19/12 A299 RMK A01 T01870121  RH  065%=      5-min Rain = 0
KLA1 200520Z 10007KT 19/12 A299 RMK A01 T01880122  RH  065%=      5-min Rain = 0
KLA1 200521Z 09008KT 19/12 A299 RMK A01 T01870122  RH  065%=      5-min Rain = 0
KLA1 200522Z 10008KT 19/12 A299 RMK A01 T01880122  RH  066%=      5-min Rain = 0
KLA1 200523Z 09007KT 19/12 A299 RMK A01 T01870121  RH  066%=      5-min Rain = 0
KLA1 200524Z 10007KT 19/12 A299 RMK A01 T01870122  RH  066%=      5-min Rain = 0
KLA1 200525Z 10009KT 19/12 A299 RMK A01 T01870122  RH  066%=      5-min Rain = 0
KLA1 200526Z 10008KT 19/12 A299 RMK A01 T01870122  RH  066%=      5-min Rain = 0
KLA1 200527Z 09008KT 19/12 A299 RMK A01 T01870122  RH  066%=      5-min Rain = 0
KLA1 200528Z 11007KT 19/12 A2989 RMK A01 T01870121  RH  066%=      5-min Rain = 0
KLA1 200529Z 11007KT 19/12 A2989 RMK A01 T01870122  RH  066%=      5-min Rain = 0
KLA1 200530Z 11007KT 19/12 A2989 RMK A01 T01860121  RH  066%=      5-min Rain = 0
KLA1 200531Z 10007KT 19/12 A2989 RMK A01 T01870121  RH  066%=      5-min Rain = 0
KLA1 200532Z 12009KT 19/12 A2989 RMK A01 T01870122  RH  066%=      5-min Rain = 0
KLA1 200533Z 11006KT 19/12 A2989 RMK A01 T01870121  RH  066%=      5-min Rain = 0
KLA1 200534Z 11005KT 19/12 A2989 RMK A01 T01870121  RH  065%=      5-min Rain = 0
KLA1 200535Z 11006KT 19/12 A2989 RMK A01 T01870121  RH  066%=      5-min Rain = 0
KLA1 200536Z 12007KT 19/12 A2989 RMK A01 T01860121  RH  066%=      5-min Rain = 0
KLA1 200537Z 12006KT 19/12 A2989 RMK A01 T01870122  RH  066%=      5-min Rain = 0
KLA1 200538Z 12009KT 19/12 A2989 RMK A01 T01860121  RH  066%=      5-min Rain = 0
KLA1 200539Z 12008KT 19/12 A2989 RMK A01 T01860121  RH  066%=      5-min Rain = 0
KLA1 200540Z 12006KT 19/12 A2989 RMK A01 T01860121  RH  066%=      5-min Rain = 0
KLA1 200541Z 12008KT 19/12 A2989 RMK A01 T01860121  RH  066%=      5-min Rain = 0
KLA1 200542Z 13006KT 19/12 A2989 RMK A01 T01860121  RH  066%=      5-min Rain = 0
KLA1 200543Z 12007KT 19/12 A2989 RMK A01 T01860121  RH  066%=      5-min Rain = 0
KLA1 200544Z 13007KT 19/12 A2989 RMK A01 T01860121  RH  066%=      5-min Rain = 0
KLA1 200545Z 12007KT 19/12 A2989 RMK A01 T01860121  RH  066%=      5-min Rain = 0
KLA1 200546Z 13008KT 19/12 A2989 RMK A01 T01860121  RH  066%=      5-min Rain = 0
KLA1 200547Z 13009KT 19/12 A2989 RMK A01 T01860121  RH  066%=      5-min Rain = 0
KLA1 200548Z 12008KT 19/12 A2989 RMK A01 T01860122  RH  066%=      5-min Rain = 0
KLA1 200549Z 13008KT 19/12 A2989 RMK A01 T01860121  RH  066%=      5-min Rain = 0
KLA1 200550Z 13009KT 19/12 A2988 RMK A01 T01860122  RH  066%=      5-min Rain = 0
KLA1 200551Z 13007KT 19/12 A2988 RMK A01 T01860121  RH  066%=      5-min Rain = 0
KLA1 200552Z 13009KT 19/12 A2988 RMK A01 T01860121  RH  066%=      5-min Rain = 0
KLA1 200553Z 13009KT 19/12 A2988 RMK A01 T01860121  RH  066%=      5-min Rain = 0
KLA1 200554Z 13008KT 19/12 A2988 RMK A01 T01860121  RH  066%=      5-min Rain = 0
KLA1 200555Z 14008KT 19/12 A2988 RMK A01 T01860121  RH  066%=      5-min Rain = 0
KLA1 200556Z 13011KT 19/12 A2988 RMK A01 T01870122  RH  066%=      5-min Rain = 0
KLA1 200557Z 13008KT 19/12 A2988 RMK A01 T01880122  RH  065%=      5-min Rain = 0
KLA1 200558Z 13009KT 19/12 A2988 RMK A01 T01880122  RH  065%=      5-min Rain = 0
KLA1 200559Z 13009KT 19/12 A2988 RMK A01 T01880122  RH  065%=      5-min Rain = 0

Page generated in 0.07 seconds.